<- Previous Day | Today | Next Day ->

All Data for 23 February 2021

 

Time A - D Temp A - D Dew Point A - D Humidity A - D Pressure A - D Wind A - D Wind Dir Gust A - D Rain Rate A - D Rain Total
00:00 8.8 5.9 82 1016.9 19.7 S 23.5 0.0 0.0
00:01 8.8 5.9 82 1016.9 19.7 S 23.5 0.0 0.0
00:02 8.8 5.9 82 1016.9 19.7 S 23.5 0.0 0.0
00:03 8.8 5.9 82 1016.7 19.7 S 23.5 0.0 0.0
00:04 8.8 5.9 82 1016.8 19.7 S 19.7 0.0 0.0
00:05 8.9 6.2 83 1016.7 24.4 SW 24.4 0.0 0.0
00:07 8.9 6.2 83 1016.8 22.1 S 24.4 0.0 0.0
00:08 8.9 6.2 83 1017.0 16.8 S 24.4 0.0 0.0
00:09 8.9 6.2 83 1017.0 16.8 S 24.4 0.0 0.0
00:10 8.9 6.2 83 1016.9 20.6 SSE 24.4 0.0 0.0
00:11 8.9 6.2 83 1016.7 17.4 S 24.4 0.0 0.0
00:12 8.9 6.2 83 1016.8 17.4 S 24.4 0.0 0.0
00:13 8.9 6.2 83 1016.8 20.6 SSE 24.4 0.0 0.0
00:14 8.9 6.2 83 1016.8 16.8 S 24.4 0.0 0.0
00:15 8.9 6.2 83 1016.7 16.8 S 24.4 0.0 0.0
00:16 8.9 6.2 83 1016.7 16.8 S 22.1 0.0 0.0
00:17 8.9 6.2 83 1016.5 19.7 S 22.1 0.0 0.0
00:18 8.9 6.2 83 1016.9 19.7 S 20.6 0.0 0.0
00:19 8.9 6.2 83 1016.4 19.0 SW 20.6 0.0 0.0
00:20 8.9 6.2 83 1016.5 19.0 S 20.6 0.0 0.0
00:22 8.9 6.2 83 1016.5 24.4 SE 25.9 0.0 0.0
00:23 8.9 6.2 83 1016.6 24.4 SE 25.9 0.0 0.0
00:24 8.9 6.2 83 1016.4 24.4 SE 25.9 0.0 0.0
00:25 8.9 6.2 83 1016.5 24.4 S 25.9 0.0 0.0
00:26 8.9 6.2 83 1016.4 24.4 S 25.9 0.0 0.0
00:27 8.9 6.2 83 1016.4 21.3 S 25.9 0.0 0.0
00:28 8.9 6.2 83 1016.4 19.7 S 25.9 0.0 0.0
00:29 8.9 6.2 83 1016.5 19.7 S 25.9 0.0 0.0
00:30 8.9 6.2 83 1016.7 17.4 S 25.9 0.0 0.0
00:31 8.9 6.2 83 1016.3 24.4 SSE 25.9 0.0 0.0
00:32 8.9 6.2 83 1016.3 18.3 S 25.9 0.0 0.0
00:33 8.9 6.2 83 1016.2 18.3 S 24.4 0.0 0.0
00:34 8.9 6.2 83 1016.3 21.3 SSE 24.4 0.0 0.0
00:35 8.9 6.2 83 1016.5 21.3 SSE 24.4 0.0 0.0
00:36 8.9 6.2 83 1016.4 17.4 S 24.4 0.0 0.0
00:37 8.9 6.2 83 1016.5 17.4 S 24.4 0.0 0.0
00:38 8.9 6.2 83 1016.6 17.4 S 24.4 0.0 0.0
00:39 8.9 6.2 83 1016.5 16.8 SE 24.4 0.0 0.0
00:41 8.9 6.2 83 1016.7 16.8 SE 21.3 0.0 0.0
00:42 8.9 6.2 83 1016.9 20.6 SE 21.3 0.0 0.0
00:43 8.9 6.2 83 1016.6 22.1 S 22.1 0.0 0.0
00:44 8.9 6.2 83 1016.6 22.1 S 22.1 0.0 0.0
00:45 8.9 6.2 83 1016.6 23.5 S 26.6 0.0 0.0
00:46 8.9 6.2 83 1016.5 23.5 S 26.6 0.0 0.0
00:47 8.9 6.2 83 1016.6 23.5 S 26.6 0.0 0.0
00:48 8.9 6.2 83 1016.6 23.5 S 26.6 0.0 0.0
00:49 8.9 6.2 83 1016.4 22.8 SW 26.6 0.0 0.0
00:50 8.9 6.2 83 1016.7 22.8 SW 26.6 0.0 0.0
00:51 8.9 6.2 83 1016.6 23.5 S 26.6 0.0 0.0
00:52 8.9 6.2 83 1016.6 22.8 SSE 26.6 0.0 0.0
00:53 8.9 6.2 83 1016.6 15.9 S 26.6 0.0 0.0
00:54 8.9 6.2 83 1016.5 22.1 SE 26.6 0.0 0.0
00:55 8.9 6.2 83 1016.4 21.3 S 23.5 0.0 0.0
00:56 8.9 6.2 83 1016.4 21.3 S 23.5 0.0 0.0
00:57 8.9 6.2 83 1016.4 21.3 S 23.5 0.0 0.0
00:59 8.9 6.2 83 1016.4 22.8 S 23.5 0.0 0.0
01:00 8.9 6.2 83 1016.4 22.8 S 23.5 0.0 0.0
01:01 8.9 6.2 83 1016.6 22.8 S 22.8 0.0 0.0
01:02 8.9 6.2 83 1016.4 22.8 S 22.8 0.0 0.0
01:03 8.9 6.2 83 1016.3 22.8 S 22.8 0.0 0.0
01:04 8.9 6.2 83 1016.4 22.8 S 22.8 0.0 0.0
01:05 8.9 6.2 83 1016.7 22.8 S 22.8 0.0 0.0
01:06 8.9 6.2 83 1016.5 22.8 S 22.8 0.0 0.0
01:07 8.9 6.2 83 1016.6 22.1 SE 22.8 0.0 0.0
01:08 8.9 6.3 84 1016.4 18.3 S 22.8 0.0 0.0
01:09 8.9 6.3 84 1016.6 20.6 SE 22.8 0.0 0.0
01:10 8.9 6.3 84 1016.4 24.4 SE 24.4 0.0 0.0
01:11 9.0 6.4 84 1016.7 23.5 S 24.4 0.0 0.0
01:12 9.0 6.4 84 1016.6 23.5 S 24.4 0.0 0.0
01:13 9.0 6.4 84 1016.4 23.5 S 24.4 0.0 0.0
01:15 9.0 6.4 84 1016.5 22.1 SE 24.4 0.0 0.0
01:17 9.0 6.4 84 1016.6 22.8 S 24.4 0.0 0.0
01:18 9.0 6.4 84 1016.9 22.8 S 24.4 0.0 0.0
01:19 9.0 6.4 84 1016.6 19.7 S 24.4 0.0 0.0
01:20 9.0 6.4 84 1016.7 18.3 S 24.4 0.0 0.0
01:21 9.1 6.5 84 1016.7 15.9 S 23.5 0.0 0.0
01:22 9.1 6.5 84 1016.5 25.1 SE 25.1 0.0 0.0
01:23 9.1 6.5 84 1016.7 25.1 S 25.1 0.0 0.0
01:24 9.1 6.5 84 1016.6 25.1 S 25.1 0.0 0.0
01:25 9.1 6.5 84 1016.6 25.1 SSE 25.1 0.0 0.0
01:26 9.1 6.5 84 1016.4 25.1 SSE 25.1 0.0 0.0
01:27 9.2 6.5 83 1016.4 26.6 SE 28.2 0.0 0.0
01:28 9.2 6.5 83 1016.5 26.6 SE 28.2 0.0 0.0
01:29 9.2 6.5 83 1016.7 26.6 SE 28.2 0.0 0.0
01:31 9.2 6.5 83 1016.3 22.1 S 28.2 0.0 0.0
01:32 9.2 6.5 83 1016.5 28.9 S 28.9 0.0 0.0
01:33 9.2 6.5 83 1016.5 28.9 S 28.9 0.0 0.0
01:34 9.2 6.5 83 1016.3 26.6 S 28.9 0.0 0.0
01:35 9.2 6.5 83 1016.6 26.6 S 28.9 0.0 0.0
01:36 9.2 6.5 83 1016.6 21.3 S 28.9 0.0 0.0
01:37 9.2 6.5 83 1016.4 18.3 S 28.9 0.0 0.0
01:38 9.2 6.5 83 1016.4 17.4 SSE 28.9 0.0 0.0
01:39 9.2 6.5 83 1016.5 19.7 S 28.9 0.0 0.0
01:40 9.2 6.5 83 1016.6 29.8 S 29.8 0.0 0.0
01:41 9.2 6.5 83 1016.4 22.8 S 29.8 0.0 0.0
01:42 9.2 6.5 83 1016.6 19.0 S 29.8 0.0 0.0
01:43 9.2 6.5 83 1016.5 27.3 S 29.8 0.0 0.0
01:44 9.2 6.5 83 1016.3 27.3 SW 29.8 0.0 0.0
01:45 9.2 6.5 83 1016.7 22.1 S 29.8 0.0 0.0
01:47 9.2 6.5 83 1016.7 19.7 S 29.8 0.0 0.0
01:48 9.2 6.5 83 1016.5 19.7 S 29.8 0.0 0.0
01:49 9.2 6.5 83 1016.5 19.7 S 29.8 0.0 0.0
01:50 9.2 6.5 83 1016.6 22.8 S 29.8 0.0 0.0
01:51 9.2 6.5 83 1016.7 22.8 S 27.3 0.0 0.0
01:52 9.2 6.5 83 1016.8 21.3 SSE 27.3 0.0 0.0
01:53 9.2 6.5 83 1016.4 23.5 S 27.3 0.0 0.0
01:54 9.2 6.5 83 1016.5 23.5 S 27.3 0.0 0.0
01:55 9.2 6.5 83 1016.5 23.5 S 23.5 0.0 0.0
01:56 9.3 6.6 83 1016.5 25.1 S 25.1 0.0 0.0
01:57 9.3 6.6 83 1016.4 25.1 S 25.1 0.0 0.0
01:58 9.3 6.6 83 1016.2 21.3 S 25.1 0.0 0.0
01:59 9.3 6.6 83 1016.2 25.9 SSE 25.9 0.0 0.0
02:00 9.3 6.6 83 1016.4 25.9 SSE 25.9 0.0 0.0
02:02 9.3 6.6 83 1016.3 20.6 S 27.3 0.0 0.0
02:03 9.3 6.6 83 1016.0 21.3 SE 27.3 0.0 0.0
02:04 9.3 6.6 83 1016.0 21.3 SE 27.3 0.0 0.0
02:05 9.3 6.6 83 1016.1 20.6 SE 27.3 0.0 0.0
02:06 9.3 6.6 83 1015.9 32.0 S 32.0 0.0 0.0
02:07 9.3 6.6 83 1015.8 22.1 SE 32.0 0.0 0.0
02:08 9.3 6.6 83 1015.9 23.5 S 32.0 0.0 0.0
02:09 9.3 6.6 83 1015.9 26.6 S 32.0 0.0 0.0
02:10 9.3 6.6 83 1016.0 26.6 S 32.0 0.0 0.0
02:11 9.3 6.6 83 1016.1 26.6 S 32.0 0.0 0.0
02:12 9.3 6.6 83 1016.0 25.9 SSE 32.0 0.0 0.0
02:13 9.3 6.6 83 1015.9 24.4 S 32.0 0.0 0.0
02:14 9.3 6.6 83 1016.1 25.1 SE 32.0 0.0 0.0
02:16 9.3 6.6 83 1016.2 22.8 SW 26.6 0.0 0.0
02:17 9.3 6.6 83 1016.3 23.5 SE 26.6 0.0 0.0
02:18 9.3 6.6 83 1016.1 22.8 S 26.6 0.0 0.0
02:19 9.3 6.6 83 1016.1 21.3 S 26.6 0.0 0.0
02:20 9.3 6.6 83 1015.9 21.3 S 26.6 0.0 0.0
02:21 9.3 6.6 83 1016.2 20.6 SSW 26.6 0.0 0.0
02:22 9.3 6.6 83 1016.2 25.1 S 25.9 0.0 0.0
02:23 9.3 6.6 83 1016.2 22.8 S 25.1 0.0 0.0
02:24 9.3 6.6 83 1016.1 25.9 S 25.9 0.0 0.0
02:25 9.3 6.6 83 1016.2 25.9 S 25.9 0.0 0.0
02:26 9.3 6.6 83 1015.8 24.4 S 25.9 0.0 0.0
02:27 9.3 6.6 83 1016.0 20.6 S 27.3 0.0 0.0
02:28 9.3 6.6 83 1015.9 22.1 SW 27.3 0.0 0.0
02:30 9.4 6.7 83 1016.0 22.1 S 28.9 0.0 0.0
02:31 9.4 6.7 83 1016.0 27.3 SE 28.9 0.0 0.0
02:32 9.4 6.7 83 1016.0 27.3 SE 28.9 0.0 0.0
02:33 9.4 6.7 83 1016.1 25.1 SE 28.9 0.0 0.0
02:34 9.4 6.7 83 1016.2 19.0 S 28.9 0.0 0.0
02:35 9.4 6.7 83 1015.9 21.3 S 28.9 0.0 0.0
02:36 9.4 6.7 83 1016.0 25.9 SE 28.9 0.0 0.0
02:37 9.4 6.7 83 1016.0 25.1 S 28.9 0.0 0.0
02:38 9.4 6.7 83 1015.9 25.9 S 28.9 0.0 0.0
02:39 9.4 6.7 83 1015.9 25.9 S 28.9 0.0 0.0
02:40 9.4 6.7 83 1015.8 22.1 SW 27.3 0.0 0.0
02:41 9.4 6.7 83 1015.8 20.6 SE 27.3 0.0 0.0
02:42 9.4 6.7 83 1015.8 18.3 S 25.9 0.0 0.0
02:44 9.4 6.7 83 1015.6 25.1 SSE 25.9 0.0 0.0
02:45 9.4 6.7 83 1015.6 19.7 SSE 25.9 0.0 0.0
02:46 9.4 6.7 83 1015.7 19.7 SSE 25.9 0.0 0.0
02:47 9.4 6.7 83 1015.8 28.9 S 28.9 0.0 0.0
02:48 9.4 6.7 83 1015.3 28.9 SE 28.9 0.0 0.0
02:49 9.4 6.7 83 1015.7 28.9 SE 28.9 0.0 0.0
02:50 9.4 6.7 83 1015.6 21.3 SE 28.9 0.0 0.0
02:51 9.4 6.7 83 1015.5 19.0 S 28.9 0.0 0.0
02:52 9.4 6.7 83 1015.6 22.1 SSE 28.9 0.0 0.0
02:53 9.4 6.7 83 1015.4 29.8 SW 29.8 0.0 0.0
02:54 9.4 6.7 83 1015.3 23.5 S 29.8 0.0 0.0
02:55 9.4 6.7 83 1015.4 23.5 S 29.8 0.0 0.0
02:56 9.4 6.7 83 1015.5 20.6 S 29.8 0.0 0.0
02:57 9.4 6.7 83 1015.5 22.1 SSE 29.8 0.0 0.0
02:59 9.4 6.7 83 1015.4 22.8 S 29.8 0.0 0.0
03:00 9.4 6.7 83 1015.4 22.8 S 29.8 0.0 0.0
03:01 9.4 6.7 83 1015.6 22.8 S 29.8 0.0 0.0
03:02 9.4 6.7 83 1015.4 22.8 S 29.8 0.0 0.0
03:03 9.4 6.7 83 1015.3 22.8 S 29.8 0.0 0.0
03:04 9.4 6.7 83 1015.2 22.8 S 23.5 0.0 0.0
03:05 9.4 6.7 83 1015.3 22.8 S 23.5 0.0 0.0
03:06 9.4 6.7 83 1015.4 22.8 S 23.5 0.0 0.0
03:07 9.5 6.8 83 1015.2 22.1 SE 23.5 0.0 0.0
03:08 9.5 6.8 83 1015.3 22.1 SE 23.5 0.0 0.0
03:09 9.5 6.8 83 1015.2 18.3 S 22.8 0.0 0.0
03:10 9.5 6.8 83 1015.0 15.2 S 22.8 0.0 0.0
03:11 9.5 6.8 83 1015.1 32.0 S 32.0 0.0 0.0
03:13 9.5 6.8 83 1015.3 20.6 SE 32.0 0.0 0.0
03:14 9.5 6.8 83 1015.3 22.1 S 32.0 0.0 0.0
03:15 9.5 6.8 83 1015.3 22.1 S 32.0 0.0 0.0
03:16 9.5 6.8 83 1015.3 22.8 SE 32.0 0.0 0.0
03:17 9.5 6.8 83 1015.3 18.3 S 32.0 0.0 0.0
03:18 9.5 6.8 83 1015.2 18.3 S 32.0 0.0 0.0
03:19 9.5 6.8 83 1015.5 22.1 S 32.0 0.0 0.0
03:20 9.5 6.8 83 1015.4 24.4 S 32.0 0.0 0.0
03:21 9.5 6.8 83 1015.5 22.1 S 32.0 0.0 0.0
03:22 9.5 6.8 83 1015.3 21.3 S 24.4 0.0 0.0
03:23 9.5 6.8 83 1015.4 24.4 S 25.9 0.0 0.0
03:24 9.5 6.8 83 1015.3 23.5 S 25.9 0.0 0.0
03:25 9.5 6.8 83 1015.3 23.5 S 25.9 0.0 0.0
03:27 9.5 6.8 83 1015.4 19.0 SSE 25.9 0.0 0.0
03:28 9.5 6.6 82 1015.3 19.7 S 25.9 0.0 0.0
03:29 9.5 6.6 82 1015.3 19.7 S 25.9 0.0 0.0
03:30 9.5 6.6 82 1015.4 24.4 S 25.9 0.0 0.0
03:31 9.5 6.6 82 1015.3 19.7 S 25.9 0.0 0.0
03:32 9.5 6.6 82 1015.3 25.1 SW 25.9 0.0 0.0
03:33 9.5 6.6 82 1015.1 22.1 SE 25.9 0.0 0.0
03:34 9.5 6.6 82 1015.4 19.0 S 25.1 0.0 0.0
03:35 9.5 6.6 82 1015.4 21.3 S 25.1 0.0 0.0
03:36 9.5 6.6 82 1015.2 21.3 SW 25.1 0.0 0.0
03:37 9.5 6.6 82 1015.3 25.1 S 25.1 0.0 0.0
03:38 9.5 6.6 82 1015.1 24.4 S 25.1 0.0 0.0
03:39 9.5 6.6 82 1015.4 22.1 S 25.1 0.0 0.0
03:41 9.5 6.6 82 1015.2 27.3 S 27.3 0.0 0.0
03:42 9.5 6.6 82 1015.3 24.4 S 27.3 0.0 0.0
03:43 9.5 6.6 82 1015.0 25.1 SSE 27.3 0.0 0.0
03:44 9.5 6.6 82 1015.0 25.1 SSE 27.3 0.0 0.0
03:45 9.5 6.6 82 1015.3 28.9 S 28.9 0.0 0.0
03:46 9.6 6.7 82 1015.3 19.0 S 28.9 0.0 0.0
03:47 9.6 6.7 82 1015.0 22.1 S 28.9 0.0 0.0
03:48 9.6 6.7 82 1015.3 27.3 S 28.9 0.0 0.0
03:49 9.6 6.7 82 1015.4 25.9 SSW 28.9 0.0 0.0
03:50 9.6 6.7 82 1015.2 21.3 S 28.9 0.0 0.0
03:51 9.6 6.7 82 1015.1 15.2 SE 28.9 0.0 0.0
03:52 9.6 6.7 82 1015.4 24.4 S 28.9 0.0 0.0
03:53 9.6 6.7 82 1015.2 18.3 S 28.9 0.0 0.0
03:54 9.6 6.7 82 1015.2 20.6 SW 28.9 0.0 0.0
03:56 9.6 6.7 82 1015.1 23.5 SE 27.3 0.0 0.0
03:57 9.6 6.7 82 1015.3 26.6 SW 27.3 0.0 0.0
03:58 9.6 6.7 82 1015.5 22.1 S 26.6 0.0 0.0
03:59 9.6 6.7 82 1015.2 25.9 SSE 26.6 0.0 0.0
04:00 9.6 6.7 82 1015.3 24.4 SSW 26.6 0.0 0.0
04:01 9.6 6.7 82 1015.3 26.6 S 26.6 0.0 0.0
04:02 9.6 6.7 82 1015.2 26.6 S 26.6 0.0 0.0
04:03 9.6 6.7 82 1015.4 19.0 S 26.6 0.0 0.0
04:04 9.6 6.7 82 1015.1 19.7 NW 26.6 0.0 0.0
04:05 9.6 6.7 82 1015.0 22.1 SSE 26.6 0.0 0.0
04:06 9.6 6.7 82 1015.0 22.1 SE 26.6 0.0 0.0
04:07 9.6 6.7 82 1015.0 22.8 S 26.6 0.0 0.0
04:08 9.6 6.7 82 1015.3 22.8 S 26.6 0.0 0.0
04:10 9.6 6.5 81 1015.2 25.9 SE 29.8 0.0 0.0
04:11 9.6 6.5 81 1015.1 24.4 S 29.8 0.0 0.0
04:12 9.6 6.5 81 1015.1 24.4 S 29.8 0.0 0.0
04:13 9.6 6.5 81 1015.3 26.6 SE 29.8 0.0 0.0
04:14 9.7 6.6 81 1015.3 23.5 S 29.8 0.0 0.0
04:15 9.7 6.6 81 1015.2 22.8 SW 29.8 0.0 0.0
04:16 9.7 6.6 81 1015.0 17.4 S 29.8 0.0 0.0
04:17 9.7 6.6 81 1015.1 20.6 E 29.8 0.0 0.0
04:18 9.7 6.6 81 1015.2 20.6 S 29.8 0.0 0.0
04:19 9.7 6.6 81 1015.1 25.1 S 29.8 0.0 0.0
04:20 9.7 6.6 81 1015.0 26.6 S 28.2 0.0 0.0
04:21 9.7 6.6 81 1015.3 33.6 SE 33.6 0.0 0.0
04:22 9.7 6.6 81 1015.1 33.6 S 33.6 0.0 0.0
04:24 9.8 6.7 81 1015.0 27.3 SE 33.6 0.0 0.0
04:25 9.8 6.7 81 1015.1 19.0 S 33.6 0.0 0.0
04:26 9.8 6.7 81 1015.0 17.4 S 33.6 0.0 0.0
04:27 9.8 6.7 81 1015.0 17.4 S 33.6 0.0 0.0
04:28 9.8 6.7 81 1015.0 22.8 SE 33.6 0.0 0.0
04:29 9.8 6.7 81 1015.0 25.1 SSE 33.6 0.0 0.0
04:30 9.8 6.7 81 1015.0 25.1 SW 33.6 0.0 0.0
04:31 9.8 6.7 81 1015.1 25.1 SE 33.6 0.0 0.0
04:32 9.8 6.7 81 1015.0 21.3 S 33.6 0.0 0.0
04:33 9.8 6.7 81 1015.1 28.9 SW 28.9 0.0 0.0
04:34 9.8 6.7 81 1014.9 27.3 S 28.9 0.0 0.0
04:35 9.8 6.7 81 1015.0 25.9 SSW 28.9 0.0 0.0
04:36 9.8 6.7 81 1015.1 25.1 SE 28.9 0.0 0.0
04:37 9.8 6.7 81 1014.8 27.3 S 28.9 0.0 0.0
04:39 9.8 6.7 81 1015.0 19.7 S 28.9 0.0 0.0
04:40 9.8 6.7 81 1014.9 22.1 S 28.9 0.0 0.0
04:41 9.8 6.7 81 1014.8 23.5 S 28.9 0.0 0.0
04:42 9.8 6.7 81 1014.7 27.3 SE 28.9 0.0 0.0
04:43 9.8 6.7 81 1014.8 22.8 S 28.9 0.0 0.0
04:44 9.8 6.7 81 1014.7 22.8 E 27.3 0.0 0.0
04:45 9.8 6.7 81 1014.9 19.7 S 27.3 0.0 0.0
04:46 9.8 6.7 81 1014.9 25.1 SE 27.3 0.0 0.0
04:47 9.8 6.7 81 1014.9 25.1 SE 27.3 0.0 0.0
04:48 9.8 6.7 81 1014.9 19.7 SSE 27.3 0.0 0.0
04:49 9.8 6.7 81 1014.8 24.4 SW 28.2 0.0 0.0
04:50 9.8 6.7 81 1014.8 21.3 S 28.2 0.0 0.0
04:51 9.8 6.5 80 1014.7 19.0 SSE 28.2 0.0 0.0
04:52 9.8 6.5 80 1014.6 19.7 SW 28.2 0.0 0.0
04:54 9.8 6.5 80 1014.7 18.3 S 28.2 0.0 0.0
04:55 9.8 6.5 80 1014.7 25.9 S 28.2 0.0 0.0
04:56 9.8 6.5 80 1014.7 25.9 S 28.2 0.0 0.0
04:57 9.8 6.5 80 1014.6 19.7 SE 28.2 0.0 0.0
04:58 9.8 6.5 80 1014.5 27.3 S 28.2 0.0 0.0
04:59 9.8 6.5 80 1014.6 27.3 S 27.3 0.0 0.0
05:00 9.8 6.5 80 1014.6 26.6 S 27.3 0.0 0.0
05:01 9.8 6.5 80 1014.9 26.6 S 27.3 0.0 0.0
05:02 9.8 6.5 80 1014.5 26.6 S 27.3 0.0 0.0
05:03 9.8 6.5 80 1014.6 26.6 S 27.3 0.0 0.0
05:04 9.8 6.5 80 1014.5 26.6 S 27.3 0.0 0.0
05:05 9.8 6.5 80 1014.6 26.6 S 27.3 0.0 0.0
05:06 9.8 6.5 80 1014.6 26.6 S 27.3 0.0 0.0
05:08 9.9 6.6 80 1014.5 25.9 S 27.3 0.0 0.0
05:09 9.9 6.6 80 1014.5 28.2 S 28.2 0.0 0.0
05:10 9.8 6.5 80 1014.6 30.4 S 30.4 0.0 0.0
05:11 9.8 6.5 80 1014.8 25.9 SSW 30.4 0.0 0.0
05:12 9.8 6.5 80 1014.5 25.1 SSW 30.4 0.0 0.0
05:13 9.8 6.5 80 1014.5 25.9 S 30.4 0.0 0.0
05:14 9.8 6.5 80 1014.7 29.8 NNE 30.4 0.0 0.0
05:15 9.9 6.6 80 1014.7 29.8 E 30.4 0.0 0.0
05:16 9.9 6.6 80 1014.4 28.2 S 30.4 0.0 0.0
05:17 9.9 6.6 80 1014.5 29.8 S 30.4 0.0 0.0
05:18 9.9 6.6 80 1014.7 25.1 S 30.4 0.0 0.0
05:19 9.9 6.6 80 1014.6 28.9 S 30.4 0.0 0.0
05:20 9.9 6.6 80 1014.6 28.9 S 29.8 0.0 0.0
05:22 9.9 6.6 80 1014.9 22.8 S 29.8 0.0 0.0
05:23 9.9 6.6 80 1014.6 19.0 S 29.8 0.0 0.0
05:24 9.9 6.6 80 1014.6 19.0 S 29.8 0.0 0.0
05:25 9.9 6.6 80 1014.9 23.5 S 29.8 0.0 0.0
05:26 9.9 6.6 80 1014.6 20.6 S 29.8 0.0 0.0
05:27 9.9 6.6 80 1014.8 24.4 SSE 29.8 0.0 0.0
05:28 9.9 6.6 80 1014.7 27.3 SSE 28.9 0.0 0.0
05:29 9.9 6.4 79 1014.6 25.9 S 28.9 0.0 0.0
05:30 10.0 6.5 79 1014.9 34.2 SW 34.2 0.0 0.0
05:31 10.0 6.5 79 1014.9 28.2 SE 34.2 0.0 0.0
05:32 10.0 6.5 79 1014.8 23.5 S 34.2 0.0 0.0
05:33 10.0 6.5 79 1014.7 25.1 S 34.2 0.0 0.0
05:34 10.0 6.5 79 1014.8 24.4 S 34.2 0.0 0.0
05:36 10.0 6.5 79 1014.6 29.8 S 34.2 0.0 0.0
05:37 10.0 6.5 79 1014.6 19.0 S 34.2 0.0 0.0
05:38 10.0 6.5 79 1014.6 25.1 S 34.2 0.0 0.0
05:39 10.0 6.5 79 1014.8 25.1 SW 34.2 0.0 0.0
05:40 10.0 6.5 79 1014.6 21.3 S 34.2 0.0 0.0
05:41 10.0 6.5 79 1014.8 31.1 SE 31.1 0.0 0.0
05:42 10.0 6.5 79 1014.6 26.6 S 31.1 0.0 0.0
05:43 10.0 6.5 79 1014.7 20.6 S 31.1 0.0 0.0
05:44 10.0 6.7 80 1015.0 22.1 S 31.1 0.0 0.0
05:45 10.0 6.7 80 1014.8 26.6 S 31.1 0.0 0.0
05:46 10.0 6.7 80 1014.9 25.1 S 31.1 0.0 0.0
05:47 10.0 6.7 80 1014.9 32.0 S 32.0 0.0 0.0
05:48 10.0 6.7 80 1014.8 25.9 WSW 32.0 0.0 0.0
05:50 10.0 6.7 80 1015.0 27.3 S 32.0 0.0 0.0
05:51 10.1 6.8 80 1014.8 19.7 S 32.0 0.0 0.0
05:52 10.1 6.8 80 1014.8 19.7 S 32.0 0.0 0.0
05:53 10.0 6.7 80 1014.8 28.2 S 32.0 0.0 0.0
05:54 10.1 6.8 80 1015.0 26.6 S 32.0 0.0 0.0
05:55 10.1 6.8 80 1014.7 25.1 SSW 32.0 0.0 0.0
05:56 10.1 6.8 80 1014.7 23.5 S 32.0 0.0 0.0
05:57 10.1 6.8 80 1014.6 27.3 SE 32.0 0.0 0.0
05:58 10.1 6.6 79 1014.7 32.7 S 32.7 0.0 0.0
05:59 10.1 6.6 79 1014.8 32.7 SW 32.7 0.0 0.0
06:00 10.2 6.7 79 1014.8 30.4 S 32.7 0.0 0.0
06:01 10.2 6.7 79 1014.9 26.6 S 32.7 0.0 0.0
06:02 10.2 6.7 79 1014.5 32.7 S 32.7 0.0 0.0
06:04 10.2 6.7 79 1015.1 27.3 S 32.7 0.0 0.0
06:05 10.2 6.7 79 1014.8 28.9 S 32.7 0.0 0.0
06:06 10.2 6.7 79 1014.6 25.9 S 32.7 0.0 0.0
06:07 10.2 6.7 79 1014.7 25.1 S 32.7 0.0 0.0
06:08 10.2 6.7 79 1014.6 25.1 S 32.7 0.0 0.0
06:09 10.2 6.7 79 1014.6 26.6 S 32.7 0.0 0.0
06:10 10.2 6.7 79 1014.7 30.4 S 32.7 0.0 0.0
06:11 10.2 6.7 79 1014.9 30.4 S 32.7 0.0 0.0
06:12 10.2 6.7 79 1014.7 25.1 SSE 32.7 0.0 0.0
06:13 10.3 6.8 79 1014.9 32.7 SE 32.7 0.0 0.0
06:14 10.3 6.8 79 1015.0 22.8 S 32.7 0.0 0.0
06:15 10.3 6.8 79 1014.7 25.9 SE 32.7 0.0 0.0
06:16 10.3 6.8 79 1014.9 26.6 S 32.7 0.0 0.0
06:18 10.3 6.8 79 1014.8 25.1 S 32.7 0.0 0.0
06:19 10.3 6.8 79 1014.7 25.1 S 32.7 0.0 0.0
06:20 10.3 6.8 79 1014.8 20.6 S 32.7 0.0 0.0
06:21 10.3 6.8 79 1015.0 23.5 S 32.7 0.0 0.0
06:22 10.3 6.8 79 1014.9 24.4 S 32.7 0.0 0.0
06:23 10.3 6.8 79 1014.8 25.1 SE 32.7 0.0 0.0
06:24 10.3 6.8 79 1015.0 32.0 S 32.0 0.0 0.0
06:25 10.3 6.8 79 1014.8 23.5 S 32.0 0.0 0.0
06:26 10.3 6.8 79 1014.9 27.3 S 32.0 0.0 0.0
06:27 10.3 6.8 79 1014.8 27.3 S 32.0 0.0 0.0
06:28 10.3 6.8 79 1015.0 26.6 S 32.0 0.0 0.0
06:29 10.3 6.8 79 1014.9 26.6 S 32.0 0.0 0.0
06:30 10.3 6.8 79 1014.7 33.6 S 33.6 0.0 0.0
06:32 10.3 6.8 79 1015.0 23.5 SE 33.6 0.0 0.0
06:33 10.3 6.8 79 1014.8 25.1 S 33.6 0.0 0.0
06:34 10.3 6.8 79 1014.8 26.6 S 33.6 0.0 0.0
06:35 10.3 6.8 79 1015.0 25.9 S 33.6 0.0 0.0
06:36 10.3 6.8 79 1014.7 30.4 S 33.6 0.0 0.0
06:37 10.3 6.8 79 1014.6 27.3 S 33.6 0.0 0.0
06:38 10.4 6.9 79 1014.7 22.8 S 33.6 0.0 0.0
06:39 10.4 6.9 79 1014.8 22.8 S 33.6 0.0 0.0
06:40 10.4 6.9 79 1014.7 28.2 S 33.6 0.0 0.0
06:41 10.4 6.9 79 1014.8 27.3 S 30.4 0.0 0.0
06:42 10.4 6.9 79 1014.9 25.9 S 30.4 0.0 0.0
06:43 10.4 6.9 79 1014.9 27.3 S 30.4 0.0 0.0
06:44 10.4 6.9 79 1014.8 22.8 S 30.4 0.0 0.0
06:46 10.4 6.9 79 1014.7 28.2 SW 28.2 0.0 0.0
06:47 10.4 6.9 79 1015.0 23.5 S 28.2 0.0 0.0
06:48 10.4 6.9 79 1015.0 27.3 S 28.2 0.0 0.0
06:49 10.4 6.9 79 1015.0 27.3 S 28.2 0.0 0.0
06:50 10.4 6.9 79 1014.9 34.2 S 34.2 0.0 0.0
06:51 10.4 6.9 79 1015.0 20.6 S 34.2 0.0 0.0
06:52 10.4 6.9 79 1014.9 28.9 S 34.2 0.0 0.0
06:53 10.4 6.9 79 1015.0 25.1 S 34.2 0.0 0.0
06:54 10.5 7.0 79 1014.8 32.7 SSW 34.2 0.0 0.0
06:55 10.5 7.0 79 1014.8 27.3 S 34.2 0.0 0.0
06:56 10.5 7.0 79 1014.8 25.9 S 34.2 0.0 0.0
06:57 10.5 7.0 79 1014.7 26.6 S 34.2 0.0 0.0
06:58 10.5 7.0 79 1014.7 22.1 SW 34.2 0.0 0.0
07:00 10.5 7.0 79 1015.1 27.3 SW 32.7 0.0 0.0
07:01 10.5 7.0 79 1014.7 27.3 SW 32.7 0.0 0.0
07:02 10.5 7.0 79 1014.9 27.3 SW 32.7 0.0 0.0
07:03 10.5 7.0 79 1014.6 27.3 SW 32.7 0.0 0.0
07:04 10.5 7.0 79 1014.6 27.3 SW 32.7 0.0 0.0
07:05 10.5 7.0 79 1014.7 27.3 SW 27.3 0.0 0.0
07:06 10.5 7.0 79 1014.7 27.3 SW 27.3 0.0 0.0
07:07 10.6 7.1 79 1014.6 28.9 S 28.9 0.0 0.0
07:08 10.6 7.1 79 1014.7 25.1 SW 28.9 0.0 0.0
07:09 10.6 7.1 79 1014.8 26.6 S 28.9 0.0 0.0
07:10 10.6 7.1 79 1014.6 32.0 S 32.0 0.0 0.0
07:11 10.6 7.1 79 1015.0 28.2 S 32.0 0.0 0.0
07:12 10.6 7.1 79 1014.7 25.9 SSE 32.0 0.0 0.0
07:14 10.6 7.1 79 1014.7 26.6 S 32.0 0.0 0.0
07:15 10.6 7.1 79 1014.8 28.2 S 32.0 0.0 0.0
07:16 10.6 7.1 79 1014.8 28.9 S 32.0 0.0 0.0
07:17 10.6 7.1 79 1014.9 27.3 E 32.0 0.0 0.0
07:18 10.6 7.1 79 1014.7 29.8 SW 32.0 0.0 0.0
07:19 10.6 7.1 79 1014.8 31.1 S 32.0 0.0 0.0
07:20 10.6 7.1 79 1014.9 23.5 SSE 32.0 0.0 0.0
07:21 10.6 7.1 79 1014.9 28.9 SSE 31.1 0.0 0.0
07:22 10.6 7.1 79 1015.1 31.1 S 31.1 0.0 0.0
07:23 10.6 7.1 79 1015.0 31.1 S 31.1 0.0 0.0
07:24 10.6 7.1 79 1015.0 25.1 SW 31.1 0.0 0.0
07:25 10.6 7.3 80 1015.0 28.2 S 31.1 0.0 0.0
07:26 10.6 7.3 80 1014.7 26.6 S 31.1 0.0 0.0
07:28 10.6 7.3 80 1014.9 22.8 S 31.1 0.0 0.0
07:29 10.6 7.3 80 1014.9 28.2 S 31.1 0.0 0.0
07:30 10.6 7.3 80 1015.0 25.9 S 31.1 0.0 0.0
07:31 10.6 7.3 80 1014.8 24.4 S 31.1 0.0 0.0
07:32 10.6 7.3 80 1014.8 22.1 SW 31.1 0.0 0.0
07:33 10.6 7.3 80 1014.9 28.9 S 31.1 0.0 0.0
07:34 10.6 7.3 80 1014.6 35.8 S 35.8 0.0 0.0
07:35 10.6 7.3 80 1014.9 35.8 SSE 35.8 0.0 0.0
07:36 10.6 7.3 80 1014.9 31.1 SW 35.8 0.0 0.0
07:37 10.6 7.3 80 1014.8 28.9 S 35.8 0.0 0.0
07:38 10.6 7.3 80 1014.9 22.1 SW 35.8 0.0 0.0
07:39 10.6 7.3 80 1014.9 26.6 S 35.8 0.0 0.0
07:40 10.6 7.3 80 1015.1 31.1 SE 35.8 0.0 0.0
07:42 10.6 7.3 80 1015.1 25.9 S 35.8 0.0 0.0
07:43 10.6 7.3 80 1014.9 28.2 S 35.8 0.0 0.0
07:44 10.6 7.3 80 1015.0 28.2 S 35.8 0.0 0.0
07:45 10.6 7.3 80 1015.1 28.2 S 35.8 0.0 0.0
07:46 10.6 7.3 80 1014.9 30.4 S 34.2 0.0 0.0
07:47 10.6 7.3 80 1015.0 23.5 S 34.2 0.0 0.0
07:48 10.6 7.3 80 1015.0 31.1 S 34.2 0.0 0.0
07:49 10.6 7.3 80 1014.9 31.1 S 34.2 0.0 0.0
07:50 10.6 7.3 80 1015.0 29.8 S 34.2 0.0 0.0
07:51 10.6 7.3 80 1015.1 25.9 S 34.2 0.0 0.0
07:52 10.6 7.3 80 1014.9 22.1 SSE 31.1 0.0 0.0
07:53 10.6 7.3 80 1015.2 29.8 S 31.1 0.0 0.0
07:54 10.6 7.3 80 1015.0 32.7 SSW 32.7 0.0 0.0
07:56 10.6 7.3 80 1015.0 27.3 S 35.8 0.0 0.0
07:57 10.6 7.3 80 1014.9 22.8 S 35.8 0.0 0.0
07:58 10.6 7.3 80 1015.0 26.6 SW 35.8 0.0 0.0
07:59 10.6 7.3 80 1015.0 28.9 SSW 35.8 0.0 0.0
08:00 10.6 7.3 80 1015.2 28.9 S 35.8 0.0 0.0
08:01 10.6 7.5 81 1015.3 32.7 S 35.8 0.0 0.0
08:02 10.6 7.5 81 1015.1 29.8 S 35.8 0.0 0.0
08:03 10.6 7.5 81 1014.7 32.0 SW 35.8 0.0 0.0
08:04 10.6 7.5 81 1014.9 32.0 S 35.8 0.0 0.0
08:05 10.6 7.5 81 1015.1 26.6 S 35.8 0.0 0.0
08:06 10.6 7.5 81 1015.2 26.6 S 32.7 0.0 0.0
08:07 10.7 7.6 81 1014.9 29.8 S 32.7 0.0 0.0
08:08 10.7 7.6 81 1015.0 33.6 S 33.6 0.0 0.0
08:10 10.7 7.6 81 1014.9 31.1 SW 33.6 0.0 0.0
08:11 10.7 7.6 81 1015.0 28.2 SW 33.6 0.0 0.0
08:12 10.7 7.6 81 1015.1 27.3 SW 33.6 0.0 0.0
08:13 10.7 7.6 81 1014.8 28.9 S 33.6 0.0 0.0
08:14 10.7 7.6 81 1015.0 34.2 S 34.2 0.0 0.0
08:15 10.7 7.6 81 1014.9 34.2 S 34.2 0.0 0.0
08:16 10.7 7.6 81 1015.1 27.3 WSW 34.2 0.0 0.0
08:17 10.7 7.6 81 1014.9 25.9 S 34.2 0.0 0.0
08:18 10.7 7.6 81 1014.9 25.9 S 34.2 0.0 0.0
08:19 10.7 7.6 81 1015.2 31.1 S 34.2 0.0 0.0
08:20 10.7 7.6 81 1015.0 31.1 S 34.2 0.0 0.0
08:21 10.7 7.6 81 1015.0 27.3 S 34.2 0.0 0.0
08:22 10.7 7.6 81 1014.9 27.3 SE 34.2 0.0 0.0
08:24 10.7 7.6 81 1015.1 31.1 S 34.2 0.0 0.0
08:25 10.7 7.6 81 1014.9 32.7 SE 32.7 0.0 0.0
08:26 10.7 7.6 81 1015.2 30.4 SW 32.7 0.0 0.0
08:27 10.7 7.6 81 1014.9 30.4 SW 32.7 0.0 0.0
08:28 10.7 7.6 81 1015.0 31.1 SE 32.7 0.0 0.0
08:29 10.7 7.6 81 1015.1 26.6 S 32.7 0.0 0.0
08:30 10.7 7.6 81 1015.0 28.9 SW 32.7 0.0 0.0
08:31 10.7 7.6 81 1015.1 29.8 S 32.7 0.0 0.0
08:32 10.7 7.6 81 1015.2 32.7 S 32.7 0.0 0.0
08:33 10.7 7.6 81 1014.9 28.9 S 32.7 0.0 0.0
08:34 10.8 7.7 81 1015.0 28.9 S 32.7 0.0 0.0
08:35 10.8 7.7 81 1014.9 25.1 S 32.7 0.0 0.0
08:36 10.8 7.7 81 1015.1 28.2 SE 32.7 0.0 0.0
08:38 10.8 7.7 81 1015.0 27.3 S 32.7 0.0 0.0
08:39 10.8 7.7 81 1015.1 32.7 S 32.7 0.0 0.0
08:40 10.8 7.7 81 1015.2 28.9 S 32.7 0.0 0.0
08:41 10.8 7.7 81 1015.0 28.9 S 32.7 0.0 0.0
08:42 10.8 7.9 82 1014.8 28.2 SW 32.7 0.0 0.0
08:43 10.8 7.9 82 1015.2 28.2 S 32.7 0.0 0.0
08:44 10.8 7.9 82 1015.1 28.2 SW 32.7 0.0 0.0
08:45 10.8 7.9 82 1015.2 25.1 S 32.7 0.0 0.0
08:46 10.8 7.9 82 1015.1 28.2 S 32.7 0.0 0.0
08:47 10.8 7.9 82 1014.8 28.2 S 32.7 0.0 0.0
08:48 10.8 7.9 82 1015.1 26.6 SW 32.7 0.0 0.0
08:49 10.9 8.0 82 1014.9 25.9 S 32.7 0.0 0.0
08:50 10.9 8.0 82 1015.0 25.1 SE 28.9 0.0 0.0
08:51 10.9 8.0 82 1015.1 38.7 SW 38.7 0.0 0.0
08:53 10.9 8.0 82 1015.1 25.9 SSE 38.7 0.0 0.0
08:54 10.9 8.0 82 1015.1 22.8 S 38.7 0.0 0.0
08:55 10.9 8.0 82 1015.2 25.9 SSW 38.7 0.0 0.0
08:56 10.9 8.0 82 1015.0 25.9 S 38.7 0.0 0.0
08:57 11.0 8.0 82 1015.0 28.2 S 38.7 0.0 0.0
08:58 11.0 8.0 82 1015.1 28.9 SSE 38.7 0.0 0.0
08:59 11.0 8.0 82 1015.1 26.6 S 38.7 0.0 0.0
09:00 11.0 8.0 82 1015.3 30.4 S 38.7 0.0 0.0
09:01 11.0 8.0 82 1015.1 30.4 S 38.7 0.0 0.0
09:02 11.0 8.0 82 1015.2 30.4 S 31.1 0.0 0.0
09:03 11.0 8.0 82 1014.8 30.4 S 30.4 0.0 0.0
09:04 11.0 8.0 82 1015.0 30.4 S 30.4 0.0 0.0
09:05 11.0 8.0 82 1015.0 30.4 S 30.4 0.0 0.0
09:07 11.0 8.0 82 1014.8 34.9 SW 34.9 0.0 0.0
09:08 11.0 8.0 82 1014.8 24.4 S 34.9 0.0 0.0
09:09 11.0 8.0 82 1014.8 24.4 S 34.9 0.0 0.0
09:10 11.0 8.0 82 1015.1 28.2 SE 34.9 0.0 0.0
09:11 11.0 8.0 82 1015.0 28.2 S 34.9 0.0 0.0
09:12 11.0 8.0 82 1015.0 28.2 S 34.9 0.0 0.0
09:13 11.0 8.0 82 1015.0 26.6 S 34.9 0.0 0.0
09:14 11.0 8.0 82 1015.3 33.6 S 34.9 0.0 0.0
09:15 11.0 8.0 82 1015.3 32.0 SSE 34.9 0.0 0.0
09:16 11.0 8.0 82 1015.1 32.7 S 34.9 0.0 0.0
09:17 11.0 8.0 82 1015.3 29.8 S 34.9 0.0 0.0
09:18 11.0 8.0 82 1015.0 27.3 W 33.6 0.0 0.0
09:19 11.0 8.0 82 1015.0 27.3 S 33.6 0.0 0.0
09:20 11.0 8.0 82 1015.0 27.3 S 33.6 0.0 0.0
09:21 11.0 8.0 82 1015.0 25.1 SW 33.6 0.0 0.0
09:23 11.0 8.0 82 1015.2 28.2 SW 33.6 0.0 0.0
09:24 11.0 8.0 82 1015.2 28.9 S 32.7 0.0 0.0
09:25 11.0 8.0 82 1015.2 25.9 SW 32.7 0.0 0.0
09:26 11.0 8.0 82 1014.9 27.3 SE 29.8 0.0 0.0
09:27 11.0 8.0 82 1015.1 31.1 S 31.1 0.0 0.0
09:28 11.0 8.0 82 1015.0 30.4 S 31.1 0.0 0.0
09:29 11.0 8.0 82 1015.2 28.9 S 31.1 0.0 0.0
09:30 11.0 8.2 83 1015.2 33.6 SE 33.6 0.0 0.0
09:31 11.0 8.2 83 1015.0 32.0 S 33.6 0.0 0.0
09:32 11.0 8.2 83 1014.9 22.8 S 33.6 0.0 0.0
09:33 11.0 8.2 83 1015.2 32.0 S 33.6 0.0 0.0
09:34 11.0 8.2 83 1014.9 30.4 SE 33.6 0.0 0.0
09:35 11.0 8.2 83 1015.0 32.0 S 33.6 0.0 0.0
09:36 11.0 8.2 83 1015.0 28.2 S 33.6 0.0 0.0
09:38 11.0 8.2 83 1015.0 36.5 S 36.5 0.0 0.0
09:39 11.0 8.2 83 1015.1 26.6 SE 36.5 0.0 0.0
09:40 11.0 8.2 83 1015.1 26.6 SE 36.5 0.0 0.0
09:41 11.0 8.2 83 1015.0 29.8 S 36.5 0.0 0.0
09:42 11.0 8.2 83 1015.0 29.8 S 36.5 0.0 0.0
09:43 11.0 8.2 83 1014.8 25.9 S 36.5 0.0 0.0
09:44 11.0 8.2 83 1015.0 26.6 SW 36.5 0.0 0.0
09:45 11.0 8.2 83 1015.2 28.2 S 36.5 0.0 0.0
09:46 11.0 8.2 83 1015.1 28.2 SSW 36.5 0.0 0.0
09:47 11.0 8.2 83 1015.2 26.6 S 36.5 0.0 0.0
09:48 11.0 8.2 83 1015.1 29.8 S 35.8 0.0 0.0
09:49 11.0 8.2 83 1015.2 33.6 S 35.8 0.0 0.0
09:50 11.0 8.2 83 1015.1 25.9 S 35.8 0.0 0.0
09:52 11.0 8.2 83 1015.0 30.4 S 35.8 0.0 0.0
09:53 11.0 8.2 83 1015.3 28.2 SSE 35.8 0.0 0.0
09:54 11.0 8.2 83 1015.4 26.6 S 35.8 0.0 0.0
09:55 11.0 8.2 83 1015.3 28.9 S 35.8 0.0 0.0
09:56 11.0 8.2 83 1015.4 30.4 S 35.8 0.0 0.0
09:57 11.0 8.2 83 1015.3 31.1 S 35.8 0.0 0.0
09:58 11.0 8.2 83 1015.5 29.8 S 33.6 0.0 0.0
09:59 11.0 8.2 83 1015.1 32.7 SW 33.6 0.0 0.0
10:00 11.0 8.2 83 1014.8 32.0 N 32.7 0.0 0.0
10:01 11.0 8.2 83 1015.3 32.0 N 32.7 0.0 0.0
10:02 11.0 8.2 83 1015.2 32.0 N 32.7 0.0 0.0
10:03 11.0 8.2 83 1015.1 32.0 N 32.7 0.0 0.0
10:04 11.0 8.2 83 1015.1 32.0 N 32.7 0.0 0.0
10:06 11.1 8.3 83 1015.3 34.2 S 34.2 0.0 0.0
10:07 11.1 8.3 83 1015.2 22.1 SW 34.2 0.0 0.0
10:08 11.1 8.3 83 1015.0 23.5 S 34.2 0.0 0.0
10:09 11.1 8.3 83 1015.0 23.5 S 34.2 0.0 0.0
10:10 11.1 8.3 83 1015.1 29.8 SSW 34.2 0.0 0.0
10:11 11.1 8.3 83 1015.2 29.8 SSW 34.2 0.0 0.0
10:12 11.1 8.3 83 1015.4 25.9 SW 34.2 0.0 0.0
10:13 11.1 8.5 84 1015.4 26.6 SSW 34.2 0.0 0.0
10:14 11.1 8.5 84 1015.3 34.9 S 34.9 0.0 0.0
10:15 11.1 8.5 84 1015.6 33.6 S 34.9 0.0 0.0
10:16 11.1 8.5 84 1015.5 33.6 S 34.9 0.0 0.0
10:17 11.1 8.5 84 1015.6 28.2 S 34.9 0.0 0.0
10:18 11.1 8.5 84 1015.2 28.2 S 34.9 0.0 0.0
10:19 11.2 8.4 83 1015.5 34.2 S 34.9 0.0 0.0
10:21 11.2 8.4 83 1015.5 26.6 S 34.9 0.0 0.0
10:22 11.2 8.4 83 1015.3 25.1 SSE 34.9 0.0 0.0
10:23 11.2 8.6 84 1015.6 29.8 S 34.9 0.0 0.0
10:24 11.2 8.6 84 1015.6 29.8 S 34.9 0.0 0.0
10:25 11.2 8.4 83 1015.4 28.9 S 34.2 0.0 0.0
10:26 11.2 8.4 83 1015.4 29.8 S 34.2 0.0 0.0
10:27 11.2 8.6 84 1015.5 34.2 S 34.2 0.0 0.0
10:28 11.2 8.6 84 1015.6 29.8 SW 34.2 0.0 0.0
10:29 11.2 8.6 84 1015.3 31.1 S 34.2 0.0 0.0
10:30 11.2 8.6 84 1015.2 32.0 SE 34.2 0.0 0.0
10:31 11.2 8.6 84 1015.4 24.4 S 34.2 0.0 0.0
10:32 11.2 8.6 84 1015.3 28.2 SSE 34.2 0.0 0.0
10:33 11.2 8.6 84 1015.3 27.3 S 34.2 0.0 0.0
10:34 11.2 8.6 84 1015.1 27.3 S 34.2 0.0 0.0
10:36 11.2 8.6 84 1015.2 30.4 S 34.2 0.0 0.0
10:37 11.2 8.6 84 1015.5 26.6 SW 34.2 0.0 0.0
10:38 11.3 8.7 84 1015.2 28.9 S 34.2 0.0 0.0
10:39 11.3 8.7 84 1015.2 28.9 S 34.2 0.0 0.0
10:40 11.3 8.7 84 1015.2 28.9 SW 34.2 0.0 0.0
10:41 11.3 8.7 84 1015.1 25.1 S 34.2 0.0 0.0
10:42 11.3 8.7 84 1015.1 25.1 S 34.2 0.0 0.0
10:43 11.3 8.7 84 1015.1 28.9 SW 34.2 0.0 0.0
10:44 11.3 8.7 84 1015.2 25.1 SW 34.2 0.0 0.0
10:45 11.3 8.7 84 1015.3 22.1 S 34.2 0.0 0.0
10:46 11.3 8.7 84 1015.0 23.5 S 34.2 0.0 0.0
10:47 11.3 8.7 84 1015.1 24.4 SW 32.7 0.0 0.0
10:48 11.3 8.7 84 1015.1 28.2 SW 32.7 0.0 0.0
10:49 11.3 8.7 84 1015.2 22.8 S 32.7 0.0 0.0
10:51 11.4 8.8 84 1015.2 35.8 S 35.8 0.0 0.0
10:52 11.4 8.8 84 1015.2 32.0 SW 35.8 0.0 0.0
10:53 11.4 8.8 84 1015.1 28.2 S 35.8 0.0 0.0
10:54 11.4 8.8 84 1015.1 25.9 S 35.8 0.0 0.0
10:55 11.4 8.8 84 1015.3 26.6 SW 35.8 0.0 0.0
10:56 11.4 8.8 84 1015.2 34.9 S 35.8 0.0 0.0
10:57 11.4 8.8 84 1015.2 30.4 S 35.8 0.0 0.0
10:58 11.4 8.8 84 1015.3 28.2 S 35.8 0.0 0.0
10:59 11.4 8.8 84 1015.3 34.9 S 35.8 0.0 0.0
11:00 11.4 8.8 84 1015.6 34.9 SE 35.8 0.0 0.0
11:01 11.4 8.8 84 1015.5 34.9 SE 35.8 0.0 0.0
11:02 11.4 8.8 84 1015.5 34.9 SE 35.8 0.0 0.0
11:03 11.4 8.8 84 1015.2 34.9 SE 34.9 0.0 0.0
11:04 11.4 8.8 84 1015.3 34.9 SE 34.9 0.0 0.0
11:05 11.5 8.7 83 1015.3 32.0 S 34.9 0.0 0.0
11:07 11.5 8.7 83 1015.5 29.8 S 34.9 0.0 0.0
11:08 11.5 8.7 83 1015.5 33.6 S 34.9 0.0 0.0
11:09 11.5 8.7 83 1015.4 29.8 SE 34.9 0.0 0.0
11:10 11.5 8.7 83 1015.5 29.8 S 34.9 0.0 0.0
11:11 11.5 8.7 83 1015.7 32.0 S 34.9 0.0 0.0
11:12 11.5 8.7 83 1015.6 32.0 S 34.9 0.0 0.0
11:13 11.5 8.7 83 1015.5 32.0 S 34.9 0.0 0.0
11:14 11.5 8.7 83 1015.6 31.1 SE 34.9 0.0 0.0
11:15 11.5 8.7 83 1015.8 28.2 SW 33.6 0.0 0.0
11:16 11.5 8.7 83 1015.6 28.2 SW 33.6 0.0 0.0
11:17 11.5 8.7 83 1015.7 35.8 SW 35.8 0.0 0.0
11:18 11.5 8.7 83 1015.8 26.6 S 35.8 0.0 0.0
11:19 11.5 8.7 83 1015.8 22.8 S 35.8 0.0 0.0
11:20 11.5 8.7 83 1016.0 29.8 S 35.8 0.0 0.0
11:21 11.6 8.8 83 1015.9 31.1 SE 37.4 0.0 0.0
11:22 11.5 8.7 83 1015.9 25.9 S 37.4 0.0 0.0
11:23 11.5 8.7 83 1015.8 30.4 SE 37.4 0.0 0.0
11:24 11.5 8.9 84 1015.8 25.1 S 37.4 0.0 0.0
11:25 11.6 9.0 84 1015.8 24.4 SW 37.4 0.0 0.0
11:27 11.6 9.0 84 1015.8 32.7 SE 37.4 0.0 0.0
11:28 11.6 9.0 84 1015.9 34.2 S 37.4 0.0 0.0
11:29 11.6 9.0 84 1015.9 34.2 S 37.4 0.0 0.0
11:30 11.6 9.0 84 1015.8 28.9 S 37.4 0.0 0.0
11:31 11.6 9.0 84 1015.8 28.9 S 34.2 0.0 0.0
11:32 11.6 9.0 84 1015.6 28.2 S 34.2 0.0 0.0
11:33 11.6 9.0 84 1015.8 36.5 S 36.5 0.0 0.0
11:34 11.6 9.0 84 1015.8 37.4 SE 37.4 0.0 0.0
11:35 11.6 9.0 84 1015.8 28.9 SE 37.4 0.0 0.0
11:36 11.6 9.0 84 1015.7 26.6 S 37.4 0.0 0.0
11:37 11.6 9.0 84 1015.8 33.6 S 37.4 0.0 0.0
11:38 11.6 9.0 84 1015.8 31.1 SSE 37.4 0.0 0.0
11:39 11.6 9.0 84 1015.7 26.6 SW 37.4 0.0 0.0
11:41 11.6 9.0 84 1015.8 28.9 SW 37.4 0.0 0.0
11:42 11.6 9.0 84 1015.9 28.9 SW 37.4 0.0 0.0
11:43 11.6 9.0 84 1016.0 28.9 SE 37.4 0.0 0.0
11:44 11.6 9.0 84 1015.9 27.3 S 37.4 0.0 0.0
11:45 11.6 9.0 84 1016.1 25.9 S 33.6 0.0 0.0
11:46 11.6 9.0 84 1015.9 24.4 S 33.6 0.0 0.0
11:47 11.6 9.0 84 1016.2 28.2 S 33.6 0.0 0.0
11:48 11.6 9.0 84 1016.0 37.4 S 37.4 0.0 0.0
11:49 11.6 9.0 84 1016.3 31.1 S 37.4 0.0 0.0
11:50 11.6 9.0 84 1015.9 31.1 S 37.4 0.0 0.0
11:51 11.6 9.0 84 1015.9 28.2 SW 37.4 0.0 0.0
11:52 11.7 9.1 84 1016.0 31.1 SW 37.4 0.0 0.0
11:53 11.7 9.1 84 1016.0 32.7 S 37.4 0.0 0.0
11:55 11.7 9.1 84 1016.0 34.2 SW 37.4 0.0 0.0
11:56 11.7 9.1 84 1016.0 27.3 S 37.4 0.0 0.0
11:57 11.7 9.1 84 1016.1 26.6 SW 37.4 0.0 0.0
11:58 11.7 9.1 84 1016.1 32.7 S 34.2 0.0 0.0
11:59 11.7 9.1 84 1016.0 34.9 NW 34.9 0.0 0.0
12:00 11.7 9.1 84 1015.8 40.3 S 40.3 0.0 0.0
12:01 11.7 9.1 84 1015.9 40.3 S 40.3 0.0 0.0
12:02 11.7 9.1 84 1016.0 40.3 S 40.3 0.0 0.0
12:03 11.7 9.1 84 1015.9 40.3 SW 40.3 0.0 0.0
12:04 11.7 9.1 84 1015.8 31.1 S 40.3 0.0 0.0
12:05 11.7 9.1 84 1015.9 25.1 S 40.3 0.0 0.0
12:06 11.7 9.1 84 1015.8 30.4 S 40.3 0.0 0.0
12:07 11.8 9.2 84 1016.2 33.6 S 40.3 0.0 0.0
12:09 11.8 9.2 84 1016.1 27.3 S 40.3 0.0 0.0
12:10 11.8 9.2 84 1016.2 32.0 SE 40.3 0.0 0.0
12:11 11.8 9.2 84 1016.1 30.4 S 40.3 0.0 0.0
12:12 11.8 9.2 84 1016.1 30.4 S 40.3 0.0 0.0
12:13 11.8 9.2 84 1016.0 25.1 S 40.3 0.0 0.0
12:14 11.8 9.2 84 1016.0 29.8 SE 33.6 0.0 0.0
12:15 11.8 9.2 84 1016.2 38.0 SW 38.0 0.0 0.0
12:16 11.9 9.3 84 1016.2 32.7 SE 38.0 0.0 0.0
12:17 11.9 9.3 84 1016.0 26.6 S 38.0 0.0 0.0
12:18 11.9 9.3 84 1016.1 27.3 SE 38.0 0.0 0.0
12:19 11.9 9.3 84 1016.1 34.9 SW 38.0 0.0 0.0
12:20 11.9 9.3 84 1015.9 34.9 SW 38.0 0.0 0.0
12:21 11.9 9.3 84 1016.1 33.6 S 38.0 0.0 0.0
12:23 11.9 9.3 84 1016.1 32.7 S 38.0 0.0 0.0
12:24 11.9 9.3 84 1016.3 30.4 S 38.0 0.0 0.0
12:25 11.9 9.3 84 1015.9 28.2 SW 34.9 0.0 0.0
12:26 11.9 9.3 84 1015.8 29.8 SE 34.9 0.0 0.0
12:27 11.9 9.3 84 1015.8 34.2 S 34.9 0.0 0.0
12:28 11.9 9.3 84 1016.1 30.4 S 34.9 0.0 0.0
12:29 11.9 9.3 84 1016.0 41.2 S 41.2 0.0 0.0
12:30 11.9 9.3 84 1016.0 35.8 S 41.2 0.0 0.0
12:31 11.9 9.3 84 1016.1 33.6 S 41.2 0.0 0.0
12:32 11.9 9.3 84 1015.9 27.3 SSW 41.2 0.0 0.0
12:33 11.9 9.3 84 1016.0 28.9 S 41.2 0.0 0.0
12:34 11.9 9.3 84 1015.9 32.7 SW 41.2 0.0 0.0
12:35 11.9 9.3 84 1015.6 28.2 SW 41.2 0.0 0.0
12:36 11.9 9.3 84 1015.9 25.1 SW 41.2 0.0 0.0
12:38 11.9 9.3 84 1015.7 30.4 SW 41.2 0.0 0.0
12:39 11.9 9.3 84 1015.8 28.2 S 37.4 0.0 0.0
12:40 11.9 9.3 84 1015.8 28.2 S 37.4 0.0 0.0
12:41 11.8 9.2 84 1015.8 32.0 S 37.4 0.0 0.0
12:42 11.8 9.2 84 1015.9 25.9 S 37.4 0.0 0.0
12:43 11.8 9.2 84 1015.7 30.4 SW 37.4 0.0 0.0
12:44 11.8 9.2 84 1015.7 30.4 S 37.4 0.0 0.0
12:45 11.8 9.4 85 1015.8 28.2 S 37.4 0.0 0.0
12:46 11.8 9.4 85 1016.1 33.6 S 37.4 0.0 0.0
12:47 11.8 9.4 85 1016.0 32.7 S 37.4 0.0 0.0
12:48 11.8 9.4 85 1015.8 41.8 SE 41.8 0.0 0.0
12:49 11.8 9.4 85 1016.1 35.8 S 41.8 0.0 0.0
12:50 11.8 9.4 85 1015.6 33.6 S 41.8 0.0 0.0
12:52 11.8 9.4 85 1015.8 31.1 S 41.8 0.0 0.0
12:53 11.9 9.5 85 1015.7 28.9 S 41.8 0.0 0.0
12:54 11.8 9.4 85 1015.9 32.7 SW 41.8 0.0 0.0
12:55 11.8 9.4 85 1015.9 32.0 S 41.8 0.0 0.0
12:56 11.8 9.4 85 1015.7 31.1 S 41.8 0.0 0.0
12:57 11.9 9.5 85 1015.8 32.0 S 41.8 0.0 0.0
12:58 11.9 9.5 85 1015.9 34.9 SW 41.8 0.0 0.0
12:59 11.9 9.5 85 1015.8 34.9 SW 35.8 0.0 0.0
13:00 11.9 9.5 85 1015.8 28.2 S 34.9 0.0 0.0
13:01 11.9 9.5 85 1015.8 28.2 S 34.9 0.0 0.0
13:02 11.9 9.5 85 1015.7 28.2 S 34.9 0.0 0.0
13:03 11.9 9.5 85 1015.6 28.2 S 34.9 0.0 0.0
13:04 11.9 9.5 85 1015.6 28.2 S 34.9 0.0 0.0
13:06 11.9 9.5 85 1015.6 30.4 S 38.0 0.0 0.0
13:07 11.9 9.5 85 1015.6 33.6 S 38.0 0.0 0.0
13:08 12.0 9.6 85 1015.4 29.8 SSW 38.0 0.0 0.0
13:09 12.0 9.6 85 1015.4 29.8 SSW 38.0 0.0 0.0
13:10 12.0 9.6 85 1015.6 33.6 S 38.0 0.0 0.0
13:11 12.0 9.6 85 1015.3 33.6 SW 38.0 0.0 0.0
13:12 12.0 9.6 85 1015.4 26.6 SW 38.0 0.0 0.0
13:13 12.0 9.6 85 1015.6 36.5 S 38.0 0.0 0.0
13:14 12.0 9.6 85 1015.5 38.7 S 38.7 0.0 0.0
13:15 12.0 9.6 85 1015.6 38.7 S 38.7 0.0 0.0
13:16 12.0 9.6 85 1015.6 32.7 S 38.7 0.0 0.0
13:17 12.0 9.6 85 1015.7 34.2 SSW 38.7 0.0 0.0
13:18 12.0 9.6 85 1015.6 32.7 S 38.7 0.0 0.0
13:19 12.0 9.6 85 1015.6 34.9 SSE 38.7 0.0 0.0
13:20 12.0 9.6 85 1015.8 34.9 SSE 38.7 0.0 0.0
13:21 12.0 9.6 85 1015.7 25.1 S 38.7 0.0 0.0
13:22 12.0 9.6 85 1015.4 31.1 S 38.7 0.0 0.0
13:23 12.1 9.7 85 1015.5 26.6 S 38.7 0.0 0.0
13:24 12.1 9.7 85 1015.5 25.1 S 38.7 0.0 0.0
13:26 12.1 9.7 85 1015.7 32.0 SSW 34.9 0.0 0.0
13:27 12.1 9.7 85 1015.6 34.2 SE 34.9 0.0 0.0
13:28 12.1 9.7 85 1015.6 34.2 SE 34.9 0.0 0.0
13:29 12.1 9.7 85 1015.4 38.0 S 38.0 0.0 0.0
13:30 12.1 9.7 85 1015.3 38.0 S 38.0 0.0 0.0
13:31 12.1 9.5 84 1015.4 28.2 S 38.0 0.0 0.0
13:32 12.0 9.4 84 1015.5 27.3 SW 38.0 0.0 0.0
13:33 12.0 9.4 84 1015.4 23.5 S 38.0 0.0 0.0
13:34 12.0 9.4 84 1015.5 32.7 S 38.0 0.0 0.0
13:35 12.0 9.4 84 1015.5 36.5 SSW 38.0 0.0 0.0
13:36 12.0 9.4 84 1015.5 33.6 S 38.0 0.0 0.0
13:37 12.0 9.4 84 1015.3 33.6 S 38.0 0.0 0.0
13:38 12.0 9.4 84 1015.4 34.9 SW 38.0 0.0 0.0
13:40 12.0 9.4 84 1015.6 39.6 S 45.0 0.0 0.0
13:41 12.0 9.4 84 1015.5 39.6 S 45.0 0.0 0.0
13:42 12.0 9.4 84 1015.6 34.2 S 45.0 0.0 0.0
13:43 12.0 9.4 84 1015.5 33.6 SE 45.0 0.0 0.0
13:44 12.0 9.4 84 1015.8 34.2 SW 45.0 0.0 0.0
13:45 11.9 9.3 84 1015.7 28.9 SE 45.0 0.0 0.0
13:46 11.9 9.3 84 1015.6 34.2 S 45.0 0.0 0.0
13:47 11.9 9.3 84 1015.6 34.2 S 45.0 0.0 0.0
13:48 11.9 9.3 84 1015.4 30.4 S 45.0 0.0 0.0
13:49 11.9 9.3 84 1015.4 32.7 S 45.0 0.0 0.0
13:50 11.9 9.3 84 1015.4 32.7 S 39.6 0.0 0.0
13:51 11.9 9.3 84 1015.4 40.3 S 40.3 0.0 0.0
13:52 11.9 9.3 84 1015.5 28.2 S 40.3 0.0 0.0
13:54 11.9 9.3 84 1015.4 35.8 SSE 40.3 0.0 0.0
13:55 11.9 9.3 84 1015.5 32.0 S 40.3 0.0 0.0
13:56 11.9 9.3 84 1015.4 28.2 S 40.3 0.0 0.0
13:57 11.9 9.3 84 1015.7 30.4 SE 40.3 0.0 0.0
13:58 11.9 9.3 84 1015.4 28.2 SE 40.3 0.0 0.0
13:59 11.9 9.3 84 1015.5 38.0 S 40.3 0.0 0.0
14:00 11.9 9.3 84 1015.6 38.0 S 40.3 0.0 0.0
14:01 11.9 9.3 84 1015.5 38.0 S 40.3 0.0 0.0
14:02 11.9 9.3 84 1015.5 38.0 S 38.0 0.0 0.0
14:03 11.9 9.3 84 1015.5 40.3 SW 40.3 0.0 0.0
14:04 11.9 9.3 84 1015.3 40.3 SW 40.3 0.0 0.0
14:05 12.0 9.4 84 1015.4 32.0 S 40.3 0.0 0.0
14:06 12.0 9.4 84 1015.3 31.1 S 40.3 0.0 0.0
14:07 12.0 9.6 85 1015.6 28.2 S 40.3 0.0 0.0
14:09 12.0 9.6 85 1015.3 25.9 SSW 40.3 0.0 0.0
14:10 12.0 9.6 85 1015.3 23.5 S 40.3 0.0 0.0
14:11 12.0 9.6 85 1015.4 23.5 S 40.3 0.0 0.0
14:12 12.0 9.6 85 1015.4 33.6 S 40.3 0.0 0.0
14:13 12.0 9.6 85 1015.4 32.7 S 40.3 0.0 0.0
14:14 12.0 9.6 85 1015.6 32.7 S 36.5 0.0 0.0
14:15 12.0 9.6 85 1015.4 24.4 SSW 33.6 0.0 0.0
14:16 12.0 9.6 85 1015.5 33.6 SW 33.6 0.0 0.0
14:17 12.0 9.4 84 1015.4 27.3 SW 33.6 0.0 0.0
14:18 12.0 9.4 84 1015.5 27.3 S 33.6 0.0 0.0
14:19 12.0 9.4 84 1015.6 28.9 S 33.6 0.0 0.0
14:20 12.0 9.4 84 1015.6 25.9 SSW 33.6 0.0 0.0
14:21 12.0 9.6 85 1015.5 32.0 S 33.6 0.0 0.0
14:22 12.0 9.6 85 1015.5 32.0 S 33.6 0.0 0.0
14:24 12.1 9.7 85 1015.6 38.7 S 38.7 0.0 0.0
14:25 12.1 9.7 85 1015.6 34.2 SE 38.7 0.0 0.0
14:26 12.1 9.7 85 1015.4 41.8 S 41.8 0.0 0.0
14:27 12.1 9.5 84 1015.7 35.8 S 41.8 0.0 0.0
14:28 12.1 9.5 84 1015.3 44.1 S 44.1 0.0 0.0
14:29 12.1 9.5 84 1015.4 32.7 S 44.1 0.0 0.0
14:30 12.1 9.5 84 1015.3 38.7 SW 44.1 0.0 0.0
14:31 12.1 9.5 84 1015.2 32.0 S 44.1 0.0 0.0
14:32 12.1 9.5 84 1015.3 28.9 S 44.1 0.0 0.0
14:33 12.1 9.5 84 1015.5 25.1 S 44.1 0.0 0.0
14:34 12.1 9.5 84 1015.3 32.0 S 44.1 0.0 0.0
14:35 12.1 9.5 84 1015.3 31.1 S 44.1 0.0 0.0
14:36 12.1 9.5 84 1015.4 34.9 S 44.1 0.0 0.0
14:38 12.1 9.5 84 1015.5 39.6 S 39.6 0.0 0.0
14:39 12.1 9.5 84 1015.4 30.4 S 39.6 0.0 0.0
14:40 12.1 9.5 84 1015.4 33.6 S 39.6 0.0 0.0
14:41 12.1 9.5 84 1015.6 37.4 S 39.6 0.0 0.0
14:42 12.1 9.5 84 1015.6 32.0 S 39.6 0.0 0.0
14:43 12.1 9.5 84 1015.3 25.1 SW 39.6 0.0 0.0
14:44 12.1 9.5 84 1015.6 33.6 S 39.6 0.0 0.0
14:45 12.1 9.5 84 1015.6 28.2 SW 39.6 0.0 0.0
14:46 12.1 9.5 84 1015.5 33.6 S 39.6 0.0 0.0
14:47 12.1 9.5 84 1015.7 31.1 S 39.6 0.0 0.0
14:48 12.1 9.5 84 1015.6 26.6 S 37.4 0.0 0.0
14:49 12.0 9.6 85 1015.4 30.4 SW 37.4 0.0 0.0
14:50 12.0 9.6 85 1015.5 25.9 S 37.4 0.0 0.0
14:52 12.0 9.6 85 1015.3 28.9 S 34.9 0.0 0.0
14:53 12.0 9.6 85 1015.2 27.3 SW 34.9 0.0 0.0
14:54 12.0 9.6 85 1015.3 30.4 S 34.9 0.0 0.0
14:55 12.0 9.6 85 1015.2 22.1 S 34.9 0.0 0.0
14:56 12.0 9.6 85 1015.5 33.6 S 34.9 0.0 0.0
14:57 12.0 9.6 85 1015.6 32.0 S 34.9 0.0 0.0
14:58 12.0 9.6 85 1015.1 34.9 SSE 34.9 0.0 0.0
14:59 12.0 9.6 85 1015.2 38.7 NE 38.7 0.0 0.0
15:00 12.0 9.6 85 1015.2 22.8 S 38.7 0.0 0.0
15:01 12.0 9.6 85 1015.3 22.8 S 38.7 0.0 0.0
15:02 12.0 9.6 85 1015.5 22.8 S 38.7 0.0 0.0
15:03 12.0 9.6 85 1015.4 22.8 S 38.7 0.0 0.0
15:04 12.0 9.6 85 1015.5 22.8 S 38.7 0.0 0.0
15:05 12.0 9.6 85 1015.4 29.8 S 38.7 0.0 0.0
15:07 12.0 9.6 85 1015.3 28.9 S 40.3 0.0 0.0
15:08 12.0 9.6 85 1015.5 31.1 S 40.3 0.0 0.0
15:09 12.0 9.6 85 1015.6 31.1 SE 40.3 0.0 0.0
15:10 12.0 9.6 85 1015.4 38.7 S 40.3 0.0 0.0
15:11 12.0 9.6 85 1015.5 38.7 S 40.3 0.0 0.0
15:12 12.0 9.6 85 1015.6 33.6 SW 40.3 0.0 0.0
15:13 12.0 9.6 85 1015.5 27.3 S 40.3 0.0 0.0
15:14 11.9 9.5 85 1015.6 32.0 S 40.3 0.0 0.0
15:15 11.9 9.5 85 1015.6 27.3 SW 40.3 0.0 0.0
15:16 11.9 9.5 85 1015.5 32.0 S 40.3 0.0 0.0
15:17 11.9 9.5 85 1015.4 34.9 SW 40.3 0.0 0.0
15:18 11.9 9.5 85 1015.6 33.6 WSW 38.7 0.0 0.0
15:19 11.9 9.5 85 1015.7 25.9 S 38.7 0.0 0.0
15:20 11.9 9.5 85 1015.5 27.3 SE 38.7 0.0 0.0
15:21 11.9 9.5 85 1015.8 27.3 SE 38.7 0.0 0.0
15:22 11.9 9.5 85 1015.5 24.4 S 34.9 0.0 0.0
15:23 11.9 9.5 85 1015.6 24.4 S 34.9 0.0 0.0
15:24 11.9 9.5 85 1015.6 24.4 SE 34.9 0.0 0.0
15:25 11.9 9.5 85 1015.3 24.4 SW 34.9 0.0 0.0
15:26 11.9 9.5 85 1015.5 34.9 S 34.9 0.0 0.0
15:28 11.9 9.5 85 1015.6 34.2 S 34.9 0.0 0.0
15:29 11.9 9.5 85 1015.5 34.2 S 34.9 0.0 0.0
15:30 11.9 9.5 85 1015.5 34.2 S 34.9 0.0 0.0
15:31 11.9 9.5 85 1015.7 28.9 S 34.9 0.0 0.0
15:32 11.9 9.5 85 1015.4 28.9 S 34.9 0.0 0.0
15:33 11.9 9.5 85 1015.6 25.1 S 34.9 0.0 0.0
15:34 11.9 9.5 85 1015.6 25.1 SW 34.9 0.0 0.0
15:35 11.9 9.5 85 1015.5 33.6 S 34.9 0.0 0.0
15:36 11.9 9.5 85 1015.4 28.2 S 34.9 0.0 0.0
15:37 11.9 9.5 85 1015.6 32.7 S 34.2 0.0 0.0
15:38 11.9 9.5 85 1015.6 29.8 S 34.2 0.0 0.0
15:39 11.9 9.5 85 1015.7 35.8 S 35.8 0.0 0.0
15:40 11.9 9.5 85 1015.5 35.8 S 35.8 0.0 0.0
15:41 11.9 9.5 85 1015.5 31.1 S 35.8 0.0 0.0
15:43 11.9 9.5 85 1015.6 35.8 S 35.8 0.0 0.0
15:44 11.9 9.5 85 1015.6 35.8 S 35.8 0.0 0.0
15:45 11.8 9.4 85 1015.6 34.9 S 35.8 0.0 0.0
15:46 11.8 9.4 85 1015.6 34.9 S 35.8 0.0 0.0
15:47 11.8 9.4 85 1015.6 27.3 SSW 35.8 0.0 0.0
15:48 11.8 9.4 85 1015.8 27.3 S 35.8 0.0 0.0
15:49 11.8 9.4 85 1015.5 32.0 S 35.8 0.0 0.0
15:50 11.8 9.4 85 1015.8 25.9 SW 35.8 0.0 0.0
15:51 11.8 9.4 85 1015.6 25.9 S 35.8 0.0 0.0
15:52 11.8 9.4 85 1016.0 25.9 S 35.8 0.0 0.0
15:53 11.8 9.4 85 1015.7 29.8 S 35.8 0.0 0.0
15:54 11.8 9.4 85 1015.7 31.1 SW 35.8 0.0 0.0
15:55 11.8 9.4 85 1015.8 38.0 S 38.0 0.0 0.0
15:57 11.8 9.4 85 1015.8 38.0 S 38.0 0.0 0.0
15:58 11.8 9.4 85 1015.7 38.0 S 38.0 0.0 0.0
15:59 11.8 9.4 85 1015.5 23.5 SE 38.0 0.0 0.0
16:00 11.8 9.4 85 1015.8 23.5 SE 38.0 0.0 0.0
16:01 11.8 9.4 85 1015.5 23.5 SE 38.0 0.0 0.0
16:02 11.8 9.4 85 1015.6 23.5 SE 38.0 0.0 0.0
16:03 11.8 9.4 85 1015.5 23.5 SE 38.0 0.0 0.0
16:04 11.8 9.4 85 1015.8 23.5 SE 38.0 0.0 0.0
16:05 11.8 9.5 86 1015.6 32.0 S 38.0 0.0 0.0
16:06 11.8 9.5 86 1015.4 28.2 S 38.0 0.0 0.0
16:07 11.8 9.5 86 1015.6 27.3 SSW 38.0 0.0 0.0
16:08 11.8 9.5 86 1015.6 25.9 S 32.0 0.0 0.0
16:09 11.8 9.5 86 1015.7 25.9 S 32.0 0.0 0.0
16:10 11.8 9.5 86 1015.8 20.6 SE 32.0 0.0 0.0
16:12 11.8 9.5 86 1015.8 25.1 SW 32.0 0.0 0.0
16:13 11.8 9.5 86 1015.7 25.9 S 32.0 0.0 0.0
16:14 11.8 9.5 86 1015.7 25.9 S 32.0 0.0 0.0
16:15 11.7 9.4 86 1015.7 27.3 SE 32.0 0.0 0.0
16:16 11.7 9.4 86 1015.6 28.2 SW 28.2 0.0 0.0
16:17 11.7 9.4 86 1015.6 24.4 S 28.2 0.0 0.0
16:18 11.7 9.4 86 1015.6 25.9 W 28.2 0.0 0.0
16:19 11.7 9.4 86 1015.6 28.9 SW 28.9 0.0 0.0
16:20 11.7 9.4 86 1015.6 28.9 SW 28.9 0.0 0.0
16:21 11.7 9.4 86 1015.6 27.3 S 28.9 0.0 0.0
16:22 11.7 9.4 86 1015.9 34.2 SW 34.2 0.0 0.0
16:23 11.7 9.4 86 1015.7 29.8 S 34.2 0.0 0.0
16:24 11.7 9.4 86 1015.8 29.8 S 34.2 0.0 0.0
16:26 11.7 9.4 86 1015.6 28.2 S 34.2 0.0 0.0
16:27 11.7 9.4 86 1015.7 28.2 S 34.2 0.0 0.0
16:28 11.7 9.4 86 1015.6 25.9 S 34.2 0.0 0.0
16:29 11.7 9.4 86 1015.6 25.9 S 34.2 0.0 0.0
16:30 11.7 9.4 86 1015.7 27.3 S 34.2 0.0 0.0
16:31 11.7 9.4 86 1015.6 27.3 S 34.2 0.0 0.0
16:32 11.7 9.4 86 1015.8 30.4 S 34.2 0.0 0.0
16:33 11.7 9.4 86 1015.5 27.3 NW 34.2 0.0 0.0
16:34 11.7 9.4 86 1015.4 25.1 S 30.4 0.0 0.0
16:35 11.7 9.4 86 1015.6 22.8 S 30.4 0.0 0.0
16:36 11.7 9.4 86 1015.7 30.4 S 30.4 0.0 0.0
16:37 11.7 9.4 86 1015.6 30.4 S 30.4 0.0 0.0
16:38 11.7 9.4 86 1015.7 28.9 SW 30.4 0.0 0.0
16:39 11.7 9.4 86 1015.5 18.3 SE 30.4 0.0 0.0
16:41 11.7 9.4 86 1015.6 32.0 S 32.0 0.0 0.0
16:42 11.7 9.4 86 1015.3 32.0 S 32.0 0.0 0.0
16:43 11.7 9.4 86 1015.9 25.1 SW 32.0 0.0 0.0
16:44 11.7 9.4 86 1015.9 25.1 SW 32.0 0.0 0.0
16:45 11.7 9.4 86 1015.7 32.7 S 32.7 0.0 0.0
16:46 11.8 9.5 86 1015.6 32.0 SW 32.7 0.0 0.0
16:47 11.8 9.5 86 1015.7 28.9 S 32.7 0.0 0.0
16:48 11.7 9.4 86 1015.5 27.3 SW 32.7 0.0 0.0
16:49 11.7 9.4 86 1015.8 31.1 S 32.7 0.0 0.0
16:50 11.7 9.4 86 1015.6 28.9 S 32.7 0.0 0.0
16:51 11.7 9.4 86 1015.7 27.3 SW 32.7 0.0 0.0
16:52 11.7 9.4 86 1015.5 32.0 SW 32.7 0.0 0.0
16:53 11.7 9.4 86 1015.6 29.8 SE 32.7 0.0 0.0
16:54 11.7 9.4 86 1015.8 27.3 S 32.7 0.0 0.0
16:56 11.7 9.4 86 1015.5 23.5 S 32.0 0.0 0.0
16:57 11.7 9.4 86 1015.4 25.9 S 32.0 0.0 0.0
16:58 11.7 9.4 86 1015.6 27.3 S 32.0 0.0 0.0
16:59 11.7 9.4 86 1015.6 29.8 S 32.0 0.0 0.0
17:00 11.7 9.4 86 1015.6 28.2 SW 32.0 0.0 0.0
17:01 11.7 9.4 86 1015.6 28.2 SW 32.0 0.0 0.0
17:02 11.7 9.4 86 1015.5 28.2 SW 32.0 0.0 0.0
17:03 11.8 9.5 86 1015.5 33.6 S 33.6 0.0 0.0
17:04 11.8 9.5 86 1015.6 26.6 SE 33.6 0.0 0.0
17:05 11.8 9.5 86 1015.4 25.1 SE 33.6 0.0 0.0
17:06 11.8 9.5 86 1015.5 17.4 SSW 33.6 0.0 0.0
17:07 11.8 9.5 86 1015.6 31.1 SW 33.6 0.0 0.0
17:09 11.8 9.5 86 1015.7 34.9 S 34.9 0.0 0.0
17:10 11.8 9.5 86 1015.4 21.3 SW 34.9 0.0 0.0
17:11 11.8 9.5 86 1015.5 35.8 S 35.8 0.0 0.0
17:12 11.8 9.5 86 1015.6 27.3 S 35.8 0.0 0.0
17:13 11.8 9.5 86 1015.6 28.2 SSW 35.8 0.0 0.0
17:14 11.8 9.5 86 1015.6 28.2 SSW 35.8 0.0 0.0
17:15 11.8 9.5 86 1015.6 31.1 S 35.8 0.0 0.0
17:16 11.8 9.5 86 1015.7 31.1 S 35.8 0.0 0.0
17:18 11.8 9.5 86 1015.6 29.8 S 35.8 0.0 0.0
17:19 11.8 9.5 86 1015.8 21.3 S 35.8 0.0 0.0
17:20 11.8 9.5 86 1015.6 19.7 S 35.8 0.0 0.0
17:21 11.8 9.5 86 1015.6 20.6 SE 35.8 0.0 0.0
17:22 11.8 9.5 86 1015.5 26.6 S 35.8 0.0 0.0
17:23 11.8 9.5 86 1015.5 32.7 S 32.7 0.0 0.0
17:24 11.8 9.5 86 1015.5 27.3 SE 32.7 0.0 0.0
17:25 11.8 9.5 86 1015.4 32.0 S 39.6 0.0 0.0
17:26 11.8 9.5 86 1015.6 27.3 SW 39.6 0.0 0.0
17:27 11.8 9.5 86 1015.4 29.8 S 39.6 0.0 0.0
17:28 11.7 9.4 86 1015.5 26.6 SW 39.6 0.0 0.0
17:29 11.7 9.4 86 1015.4 32.0 SE 39.6 0.0 0.0
17:30 11.7 9.4 86 1015.5 32.7 S 39.6 0.0 0.0
17:32 11.7 9.4 86 1016.1 28.2 S 39.6 0.0 0.0
17:33 11.7 9.4 86 1015.5 22.8 SW 39.6 0.0 0.0
17:34 11.7 9.4 86 1015.6 25.9 S 39.6 0.0 0.0
17:35 11.7 9.4 86 1015.7 28.2 SSE 34.9 0.0 0.0
17:36 11.7 9.4 86 1015.8 28.9 S 34.9 0.0 0.0
17:37 11.7 9.4 86 1015.7 29.8 S 34.9 0.0 0.0
17:38 11.7 9.4 86 1016.1 34.9 SW 34.9 0.0 0.0
17:39 11.7 9.4 86 1015.6 33.6 S 34.9 0.0 0.0
17:40 11.7 9.4 86 1015.5 33.6 S 34.9 0.0 0.0
17:41 11.7 9.4 86 1015.8 31.1 S 34.9 0.0 0.0
17:42 11.7 9.4 86 1015.8 32.7 S 34.9 0.0 0.0
17:43 11.7 9.4 86 1015.9 26.6 WSW 34.9 0.0 0.0
17:44 11.7 9.6 87 1015.8 25.9 S 34.9 0.0 0.0
17:46 11.7 9.6 87 1015.6 32.7 WSW 37.4 0.0 0.0
17:47 11.7 9.6 87 1015.8 34.2 S 37.4 0.0 0.0
17:48 11.7 9.6 87 1016.0 26.6 S 37.4 0.0 0.0
17:49 11.7 9.6 87 1015.7 25.9 SW 37.4 0.0 0.0
17:50 11.7 9.6 87 1015.9 23.5 S 37.4 0.0 0.0
17:51 11.7 9.6 87 1015.9 23.5 SW 37.4 0.0 0.0
17:52 11.7 9.6 87 1015.9 29.8 S 37.4 0.0 0.0
17:53 11.7 9.6 87 1015.8 23.5 S 37.4 0.0 0.0
17:54 11.7 9.6 87 1016.0 24.4 S 37.4 0.0 0.0
17:55 11.7 9.6 87 1015.9 24.4 S 37.4 0.0 0.0
17:56 11.7 9.6 87 1015.6 28.9 SW 34.2 0.0 0.0
17:57 11.7 9.6 87 1016.0 28.2 SW 34.2 0.0 0.0
17:58 11.7 9.6 87 1015.7 23.5 S 29.8 0.0 0.0
18:00 11.7 9.6 87 1016.0 27.3 SE 29.8 0.0 0.0
18:01 11.7 9.6 87 1016.0 27.3 SE 29.8 0.0 0.0
18:02 11.7 9.6 87 1015.9 27.3 SE 28.9 0.0 0.0
18:03 11.7 9.6 87 1016.1 27.3 SE 28.9 0.0 0.0
18:04 11.7 9.6 87 1016.1 27.3 SE 28.9 0.0 0.0
18:05 11.7 9.6 87 1016.1 27.3 SE 28.9 0.0 0.0
18:06 11.7 9.6 87 1016.2 27.3 SE 28.9 0.0 0.0
18:07 11.7 9.8 88 1016.3 31.1 S 31.1 0.0 0.0
18:08 11.7 9.8 88 1016.1 29.8 S 31.1 0.0 0.0
18:09 11.7 9.8 88 1016.2 28.2 S 31.1 0.0 0.0
18:10 11.7 9.8 88 1016.3 27.3 S 31.1 0.0 0.0
18:11 11.7 9.8 88 1016.1 32.0 S 32.0 0.0 0.0
18:12 11.7 9.8 88 1016.2 25.1 S 32.0 0.0 0.0
18:14 11.7 10.0 89 1016.3 28.2 SW 32.0 0.0 0.0
18:15 11.8 10.0 89 1016.4 28.2 S 32.0 0.0 0.0
18:16 11.8 10.0 89 1016.4 27.3 S 32.0 0.0 0.0
18:17 11.8 10.0 89 1016.3 24.4 SW 32.0 0.0 0.0
18:18 11.8 10.0 89 1016.5 25.9 S 32.0 0.0 0.0
18:19 11.8 10.0 89 1016.3 25.9 S 32.0 0.0 0.0
18:20 11.7 10.0 89 1016.3 27.3 SW 32.0 0.0 0.0
18:21 11.7 10.0 89 1016.4 28.2 SE 32.0 0.0 0.0
18:22 11.7 10.0 89 1016.3 28.2 SW 32.0 0.0 0.0
18:23 11.7 10.0 89 1016.5 23.5 S 28.2 0.0 0.0
18:24 11.7 10.0 89 1016.3 27.3 S 28.2 0.0 0.0
18:25 11.7 10.0 89 1016.5 26.6 S 32.7 0.0 0.0
18:26 11.7 10.0 89 1016.4 32.7 SW 32.7 0.0 0.0
18:27 11.7 10.0 89 1016.5 32.0 SW 32.7 0.0 0.0
18:29 11.7 10.0 89 1016.4 28.2 SW 32.7 0.0 0.0
18:30 11.7 10.0 89 1016.7 28.2 S 32.7 0.0 0.0
18:31 11.8 10.0 89 1016.4 36.5 S 36.5 0.0 0.0
18:32 11.8 10.0 89 1016.4 36.5 S 36.5 0.0 0.0
18:33 11.8 10.0 89 1016.5 26.6 S 36.5 0.0 0.0
18:34 11.8 10.0 89 1016.6 21.3 SW 36.5 0.0 0.0
18:35 11.8 10.0 89 1016.6 25.1 S 36.5 0.0 0.0
18:36 11.8 10.0 89 1016.7 22.8 S 36.5 0.0 0.0
18:37 11.8 10.0 89 1016.8 29.8 S 36.5 0.0 0.0
18:38 11.8 10.0 89 1016.3 39.6 S 39.6 0.0 0.0
18:39 11.8 10.0 89 1016.7 29.8 SW 39.6 0.0 0.0
18:40 11.8 10.0 89 1017.0 25.9 S 39.6 0.0 0.0
18:41 11.8 10.0 89 1016.5 28.9 S 39.6 0.0 0.0
18:42 11.8 10.2 90 1016.5 29.8 S 39.6 0.0 0.0
18:44 11.9 10.3 90 1016.5 28.9 SW 39.6 0.0 0.0
18:45 11.9 10.3 90 1016.5 28.2 S 39.6 0.0 0.0
18:46 11.9 10.3 90 1016.7 31.1 SW 39.6 0.0 0.0
18:47 11.9 10.1 89 1016.7 32.7 S 39.6 0.0 0.0
18:48 11.9 10.1 89 1016.7 36.5 S 39.6 0.0 0.0
18:49 11.9 10.1 89 1017.0 30.4 SW 36.5 0.0 0.0
18:50 11.9 10.1 89 1016.5 33.6 SW 36.5 0.0 0.0
18:51 11.9 10.1 89 1016.7 27.3 SW 36.5 0.0 0.0
18:52 11.9 10.1 89 1016.5 21.3 SW 36.5 0.0 0.0
18:53 11.9 10.1 89 1016.6 24.4 S 36.5 0.0 0.0
18:54 11.9 10.1 89 1016.8 33.6 S 36.5 0.0 0.0
18:55 11.9 10.1 89 1016.6 26.6 SW 36.5 0.0 0.0
18:56 11.9 10.1 89 1016.7 25.1 SW 36.5 0.0 0.0
18:58 11.9 10.1 89 1016.5 25.9 S 33.6 0.0 0.0
18:59 11.9 10.1 89 1016.8 28.9 S 33.6 0.0 0.0
19:00 11.9 10.1 89 1016.6 28.9 S 33.6 0.0 0.0
19:01 11.9 10.1 89 1016.8 28.9 S 33.6 0.0 0.0
19:02 11.9 10.1 89 1016.5 28.9 S 33.6 0.0 0.0
19:03 11.9 10.1 89 1016.7 28.9 S 33.6 0.0 0.0
19:04 11.9 10.1 89 1016.4 28.9 S 33.6 0.0 0.0
19:05 11.9 10.1 89 1016.3 28.9 S 30.4 0.0 0.0
19:06 11.9 10.1 89 1016.6 28.9 S 30.4 0.0 0.0
19:07 11.9 10.1 89 1016.6 28.2 S 30.4 0.0 0.0
19:08 11.9 10.3 90 1016.7 26.6 S 28.9 0.0 0.0
19:09 11.9 10.3 90 1016.8 30.4 S 30.4 0.0 0.0
19:10 11.9 10.3 90 1016.7 28.9 SW 30.4 0.0 0.0
19:11 11.9 10.3 90 1016.6 28.9 S 30.4 0.0 0.0
19:13 11.9 10.3 90 1016.5 28.9 SW 30.4 0.0 0.0
19:14 11.9 10.3 90 1016.6 28.2 S 30.4 0.0 0.0
19:15 11.9 10.3 90 1016.6 24.4 SSE 32.0 0.0 0.0
19:17 11.9 10.3 90 1016.6 26.6 S 32.0 0.0 0.0
19:18 11.9 10.3 90 1016.7 32.7 S 32.7 0.0 0.0
19:19 11.9 10.3 90 1016.4 28.9 S 32.7 0.0 0.0
19:20 11.9 10.3 90 1016.7 32.7 SE 32.7 0.0 0.0
19:21 11.9 10.3 90 1016.7 32.7 SSE 32.7 0.0 0.0
19:23 11.9 10.3 90 1016.4 23.5 S 32.7 0.0 0.0
19:24 11.9 10.3 90 1016.6 22.1 SW 32.7 0.0 0.0
19:25 11.9 10.3 90 1016.6 25.1 S 32.7 0.0 0.0
19:26 11.8 10.2 90 1016.7 28.2 S 32.7 0.0 0.0
19:27 11.8 10.2 90 1016.4 25.9 S 32.7 0.0 0.0
19:28 11.8 10.2 90 1016.7 22.1 S 32.7 0.0 0.0
19:29 11.8 10.2 90 1016.8 29.8 SE 32.7 0.0 0.0
19:30 11.8 10.2 90 1016.6 29.8 S 32.7 0.0 0.0
19:31 11.8 10.2 90 1016.6 22.8 S 32.7 0.0 0.0
19:32 11.8 10.2 90 1016.8 27.3 S 32.7 0.0 0.0
19:33 11.8 10.2 90 1016.8 29.8 S 32.0 0.0 0.0
19:34 11.8 10.2 90 1016.5 22.8 S 32.0 0.0 0.0
19:35 11.8 10.2 90 1016.5 24.4 S 32.0 0.0 0.0
19:36 11.8 10.2 90 1016.4 24.4 S 32.0 0.0 0.0
19:37 11.8 10.2 90 1016.7 27.3 SSE 32.0 0.0 0.0
19:39 11.8 10.2 90 1016.5 28.9 S 32.0 0.0 0.0
19:40 11.8 10.2 90 1016.7 23.5 S 32.0 0.0 0.0
19:41 11.8 10.2 90 1016.6 23.5 S 32.0 0.0 0.0
19:42 11.8 10.2 90 1016.8 32.7 S 32.7 0.0 0.0
19:43 11.8 10.2 90 1016.6 28.9 SW 32.7 0.0 0.0
19:44 11.8 10.2 90 1016.6 23.5 S 32.7 0.0 0.0
19:45 11.8 10.2 90 1016.8 24.4 S 32.7 0.0 0.0
19:46 11.8 10.2 90 1016.6 28.2 SW 32.7 0.0 0.0
19:47 11.8 10.2 90 1016.7 28.2 S 32.7 0.0 0.0
19:48 11.8 10.2 90 1016.7 24.4 S 32.7 0.0 0.0
19:49 11.8 10.2 90 1016.7 25.1 S 32.7 0.0 0.0
19:50 11.8 10.2 90 1016.6 27.3 SSW 32.7 0.0 0.0
19:51 11.8 10.2 90 1016.7 28.9 SW 32.7 0.0 0.0
19:52 11.8 10.2 90 1016.6 23.5 S 28.9 0.0 0.0
19:54 11.8 10.2 90 1016.7 23.5 S 28.9 0.0 0.0
19:55 11.8 10.2 90 1016.6 27.3 SW 28.9 0.0 0.0
19:56 11.8 10.2 90 1016.6 27.3 SW 28.9 0.0 0.0
19:57 11.8 10.4 91 1016.5 27.3 S 28.9 0.0 0.0
19:58 11.8 10.4 91 1016.5 28.9 SW 28.9 0.0 0.0
19:59 11.8 10.4 91 1016.7 29.8 S 29.8 0.0 0.0
20:00 11.8 10.4 91 1016.8 25.9 S 29.8 0.0 0.0
20:01 11.8 10.4 91 1016.7 25.9 SW 29.8 0.0 0.0
20:02 11.8 10.4 91 1016.5 25.9 S 29.8 0.0 0.0
20:03 11.8 10.4 91 1016.8 25.1 S 29.8 0.0 0.0
20:04 11.8 10.4 91 1016.7 28.9 SE 29.8 0.0 0.0
20:05 11.8 10.4 91 1016.7 25.1 W 34.2 0.0 0.0
20:06 11.8 10.4 91 1016.8 20.6 S 34.2 0.0 0.0
20:07 11.8 10.4 91 1016.5 29.8 SW 34.2 0.0 0.0
20:09 11.8 10.4 91 1016.7 25.1 S 34.2 0.0 0.0
20:10 11.8 10.4 91 1016.6 25.9 SW 34.2 0.0 0.0
20:11 11.8 10.4 91 1016.7 30.4 S 34.2 0.0 0.0
20:12 11.8 10.4 91 1016.4 29.8 S 34.2 0.0 0.0
20:13 11.8 10.4 91 1016.5 37.4 SW 37.4 0.0 0.0
20:14 11.9 10.5 91 1016.6 25.1 S 37.4 0.0 0.0
20:15 11.9 10.5 91 1016.4 25.1 S 37.4 0.0 0.0
20:16 11.9 10.5 91 1016.6 28.9 S 37.4 0.0 0.0
20:17 11.9 10.5 91 1016.6 28.9 S 37.4 0.0 0.0
20:18 11.9 10.5 91 1016.6 28.9 S 37.4 0.0 0.0
20:19 11.9 10.5 91 1016.6 32.7 SW 37.4 0.0 0.0
20:20 11.9 10.5 91 1016.5 35.8 S 37.4 0.0 0.0
20:21 11.9 10.5 91 1016.7 32.0 S 37.4 0.0 0.0
20:22 11.9 10.5 91 1016.5 32.0 S 37.4 0.0 0.0
20:24 11.9 10.5 91 1016.5 27.3 SW 35.8 0.0 0.0
20:25 11.9 10.5 91 1016.6 25.9 SW 35.8 0.0 0.0
20:26 11.9 10.5 91 1016.6 31.1 SE 35.8 0.0 0.0
20:27 11.8 10.4 91 1016.5 32.0 S 35.8 0.0 0.0
20:28 11.8 10.4 91 1016.5 32.0 S 35.8 0.0 0.0
20:29 11.9 10.5 91 1016.6 29.8 SW 35.8 0.0 0.0
20:30 11.9 10.5 91 1016.6 32.0 SW 32.0 0.0 0.0
20:31 11.9 10.5 91 1016.7 28.2 S 32.0 0.0 0.0
20:32 11.9 10.5 91 1016.7 29.8 S 32.0 0.0 0.0
20:33 11.9 10.5 91 1016.8 30.4 S 32.0 0.0 0.0
20:34 11.9 10.5 91 1016.6 25.9 S 32.0 0.0 0.0
20:35 11.9 10.5 91 1016.8 27.3 SW 32.0 0.0 0.0
20:36 11.9 10.5 91 1016.8 27.3 S 32.0 0.0 0.0
20:37 11.9 10.5 91 1016.7 24.4 WSW 32.0 0.0 0.0
20:39 11.9 10.5 91 1016.8 25.9 S 32.0 0.0 0.0
20:40 11.9 10.5 91 1016.7 28.9 S 30.4 0.0 0.0
20:41 11.9 10.5 91 1016.6 28.9 S 30.4 0.0 0.0
20:42 11.9 10.5 91 1016.5 27.3 S 30.4 0.0 0.0
20:43 11.9 10.5 91 1017.0 29.8 S 30.4 0.0 0.0
20:44 11.9 10.5 91 1016.5 29.8 S 29.8 0.0 0.0
20:45 11.9 10.5 91 1016.8 26.6 SW 29.8 0.0 0.0
20:46 11.9 10.5 91 1016.9 26.6 SW 29.8 0.0 0.0
20:47 11.9 10.5 91 1016.8 28.2 SW 29.8 0.0 0.0
20:48 11.9 10.5 91 1016.7 28.2 S 29.8 0.0 0.0
20:49 11.9 10.5 91 1016.7 26.6 S 29.8 0.0 0.0
20:50 11.9 10.5 91 1016.7 25.9 S 29.8 0.0 0.0
20:51 11.9 10.5 91 1016.7 20.6 WSW 29.8 0.0 0.0
20:52 11.9 10.5 91 1016.6 26.6 S 29.8 0.0 0.0
20:53 11.9 10.5 91 1016.6 24.4 S 29.8 0.0 0.0
20:56 11.9 10.5 91 1016.8 30.4 SW 30.4 0.0 0.0
20:57 11.9 10.5 91 1016.8 30.4 SSW 30.4 0.0 0.0
20:58 11.9 10.5 91 1016.7 38.0 NW 38.0 0.0 0.0
20:59 11.9 10.5 91 1016.8 31.1 S 38.0 0.0 0.0
21:00 11.9 10.5 91 1016.8 35.8 S 38.0 0.0 0.0
21:01 11.9 10.5 91 1016.7 35.8 S 38.0 0.0 0.0
21:02 11.9 10.5 91 1016.7 35.8 S 38.0 0.0 0.0
21:03 11.9 10.5 91 1017.0 35.8 S 38.0 0.0 0.0
21:04 11.9 10.5 91 1016.8 35.8 S 38.0 0.0 0.0
21:05 11.9 10.5 91 1016.9 35.8 S 38.0 0.0 0.0
21:06 11.9 10.5 91 1016.9 35.8 S 38.0 0.0 0.0
21:07 12.0 10.6 91 1016.8 31.1 S 38.0 0.0 0.0
21:08 12.0 10.6 91 1016.6 30.4 SE 35.8 0.0 0.0
21:09 12.0 10.6 91 1016.7 22.1 S 35.8 0.0 0.0
21:11 11.9 10.5 91 1016.8 31.1 S 35.8 0.0 0.0
21:12 11.9 10.5 91 1016.7 31.1 S 35.8 0.0 0.0
21:13 11.9 10.5 91 1016.7 23.5 S 35.8 0.0 0.0
21:14 11.9 10.5 91 1017.0 37.4 S 37.4 0.0 0.0
21:15 11.9 10.5 91 1016.8 22.8 SW 37.4 0.0 0.0
21:16 11.9 10.5 91 1016.8 25.1 SW 37.4 0.0 0.0
21:18 11.9 10.5 91 1017.1 32.0 S 37.4 0.0 0.0
21:19 11.9 10.5 91 1016.9 25.1 S 37.4 0.0 0.0
21:20 11.9 10.5 91 1016.9 25.1 S 37.4 0.0 0.0
21:21 11.9 10.5 91 1016.8 28.2 S 37.4 0.0 0.0
21:22 11.9 10.5 91 1017.0 28.2 SW 37.4 0.0 0.0
21:23 11.9 10.5 91 1017.2 25.1 SW 37.4 0.0 0.0
21:24 11.9 10.5 91 1016.9 33.6 SW 37.4 0.0 0.0
21:25 11.9 10.5 91 1017.0 28.2 S 35.8 0.0 0.0
21:26 11.9 10.5 91 1016.8 32.7 S 35.8 0.0 0.0
21:27 11.9 10.5 91 1016.7 29.8 SSW 35.8 0.0 0.0
21:28 11.9 10.5 91 1016.7 24.4 SW 33.6 0.0 0.0
21:29 11.9 10.5 91 1016.8 28.9 S 33.6 0.0 0.0
21:30 11.9 10.5 91 1017.0 31.1 S 33.6 0.0 0.0
21:31 11.9 10.5 91 1017.1 31.1 S 33.6 0.0 0.0
21:32 11.9 10.5 91 1017.2 26.6 S 33.6 0.0 0.0
21:33 11.9 10.5 91 1017.0 28.2 S 33.6 0.0 0.0
21:34 11.9 10.5 91 1016.9 31.1 SW 33.6 0.0 0.0
21:36 11.9 10.5 91 1016.9 22.8 SSW 31.1 0.0 0.0
21:37 11.9 10.5 91 1016.9 24.4 SW 31.1 0.0 0.0
21:38 11.9 10.5 91 1016.9 32.0 SE 32.0 0.0 0.0
21:39 11.9 10.5 91 1017.1 25.9 S 32.0 0.0 0.0
21:40 11.9 10.5 91 1017.1 25.9 S 32.0 0.0 0.0
21:41 11.9 10.5 91 1017.0 28.2 S 32.0 0.0 0.0
21:42 11.9 10.5 91 1016.7 27.3 SW 32.0 0.0 0.0
21:43 11.9 10.5 91 1017.0 28.9 S 32.0 0.0 0.0
21:44 11.9 10.5 91 1016.9 25.9 NW 32.0 0.0 0.0
21:45 11.9 10.5 91 1016.9 29.8 S 32.0 0.0 0.0
21:46 11.9 10.5 91 1017.0 27.3 S 32.0 0.0 0.0
21:47 11.9 10.5 91 1016.6 31.1 S 32.0 0.0 0.0
21:48 11.9 10.5 91 1016.7 26.6 S 32.0 0.0 0.0
21:49 11.9 10.5 91 1017.1 28.9 SE 32.0 0.0 0.0
21:50 11.9 10.5 91 1016.7 23.5 S 31.1 0.0 0.0
21:51 11.9 10.5 91 1016.9 27.3 SW 31.1 0.0 0.0
21:52 11.9 10.5 91 1016.8 27.3 S 31.1 0.0 0.0
21:53 11.9 10.5 91 1017.0 25.9 SW 31.1 0.0 0.0
21:55 11.9 10.5 91 1016.8 25.9 S 31.1 0.0 0.0
21:56 11.9 10.5 91 1016.9 25.9 S 31.1 0.0 0.0
21:57 11.9 10.5 91 1016.8 22.8 S 28.9 0.0 0.0
21:58 11.9 10.5 91 1016.7 28.9 S 28.9 0.0 0.0
21:59 11.9 10.5 91 1016.8 34.9 SSW 34.9 0.0 0.0
22:00 11.9 10.6 92 1016.6 28.2 W 34.9 0.0 0.0
22:01 11.9 10.6 92 1016.8 27.3 SSW 34.9 0.0 0.0
22:02 11.9 10.6 92 1016.5 22.1 S 34.9 0.0 0.0
22:03 11.9 10.6 92 1016.9 23.5 S 34.9 0.0 0.0
22:04 11.9 10.6 92 1016.8 25.9 S 34.9 0.0 0.0
22:05 11.9 10.6 92 1016.8 27.3 S 34.9 0.0 0.0
22:06 11.9 10.6 92 1016.8 28.9 SSW 34.9 0.0 0.0
22:07 11.9 10.6 92 1016.8 29.8 S 34.9 0.0 0.0
22:08 11.9 10.6 92 1017.0 29.8 S 34.9 0.0 0.0
22:09 11.9 10.6 92 1016.8 20.6 SSE 29.8 0.0 0.0
22:10 11.9 10.6 92 1017.0 25.9 SW 29.8 0.0 0.0
22:11 11.9 10.6 92 1016.7 24.4 SW 29.8 0.0 0.0
22:12 11.9 10.6 92 1016.9 33.6 S 33.6 0.0 0.0
22:14 11.9 10.6 92 1016.9 25.1 S 33.6 0.0 0.0
22:15 11.9 10.6 92 1016.6 32.0 S 33.6 0.0 0.0
22:16 11.9 10.6 92 1016.9 24.4 SW 33.6 0.0 0.0
22:17 11.9 10.6 92 1016.8 28.2 S 33.6 0.0 0.0
22:18 11.9 10.6 92 1016.8 31.1 SW 33.6 0.0 0.0
22:19 11.9 10.6 92 1016.7 31.1 S 33.6 0.0 0.0
22:20 11.9 10.6 92 1016.8 25.1 WNW 33.6 0.0 0.0
22:21 11.9 10.6 92 1016.9 26.6 SW 33.6 0.0 0.0
22:22 11.9 10.6 92 1016.8 28.9 S 33.6 0.0 0.0
22:23 11.9 10.6 92 1016.9 23.5 S 33.6 0.0 0.0
22:24 11.9 10.6 92 1017.1 23.5 S 32.0 0.0 0.0
22:25 11.9 10.6 92 1017.0 28.9 SW 32.0 0.0 0.0
22:26 11.9 10.6 92 1017.0 28.9 SW 31.1 0.0 0.0
22:27 11.9 10.6 92 1016.9 28.9 S 31.1 0.0 0.0
22:28 11.9 10.6 92 1016.7 31.1 SW 31.1 0.0 0.0
22:29 11.9 10.6 92 1016.8 31.1 SW 31.1 0.0 0.0
22:30 11.9 10.6 92 1017.1 29.8 NE 31.1 0.0 0.0
22:32 11.9 10.6 92 1017.0 26.6 SW 31.1 0.0 0.0
22:33 11.9 10.6 92 1016.9 30.4 S 31.1 0.0 0.0
22:34 11.9 10.6 92 1016.9 26.6 S 31.1 0.0 0.0
22:35 11.9 10.6 92 1016.8 25.1 S 31.1 0.0 0.0
22:36 11.9 10.6 92 1016.9 25.1 S 31.1 0.0 0.0
22:37 11.9 10.6 92 1016.9 26.6 SW 31.1 0.0 0.0
22:38 11.9 10.6 92 1016.9 26.6 S 31.1 0.0 0.0
22:39 11.9 10.5 91 1016.9 24.4 SE 31.1 0.0 0.0
22:40 11.9 10.5 91 1016.9 28.9 SW 30.4 0.0 0.0
22:41 11.9 10.5 91 1016.8 34.9 SW 34.9 0.0 0.0
22:42 11.9 10.5 91 1016.8 24.4 S 34.9 0.0 0.0
22:43 11.9 10.5 91 1016.8 25.9 SW 34.9 0.0 0.0
22:44 11.9 10.5 91 1017.0 28.9 S 34.9 0.0 0.0
22:45 11.9 10.6 92 1017.0 28.2 SSW 34.9 0.0 0.0
22:46 11.9 10.6 92 1017.2 25.1 S 34.9 0.0 0.0
22:47 11.9 10.6 92 1016.8 28.2 S 34.9 0.0 0.0
22:48 11.9 10.6 92 1016.9 25.1 S 34.9 0.0 0.0
22:49 11.9 10.6 92 1017.2 25.1 SW 34.9 0.0 0.0
22:50 11.9 10.6 92 1017.0 29.8 WSW 34.9 0.0 0.0
22:52 11.9 10.6 92 1017.0 25.1 WSW 29.8 0.0 0.0
22:53 11.8 10.5 92 1017.2 26.6 SW 29.8 0.0 0.0
22:54 11.9 10.6 92 1017.0 28.2 S 29.8 0.0 0.0
22:55 11.9 10.6 92 1017.1 30.4 S 30.4 0.0 0.0
22:56 11.9 10.6 92 1017.1 30.4 S 30.4 0.0 0.0
22:57 11.9 10.6 92 1016.8 23.5 S 31.1 0.0 0.0
22:58 11.9 10.6 92 1016.9 22.1 E 31.1 0.0 0.0
22:59 11.9 10.6 92 1017.0 28.9 SW 31.1 0.0 0.0
23:00 11.9 10.6 92 1016.9 24.4 SW 31.1 0.0 0.0
23:01 11.9 10.6 92 1016.9 24.4 SW 31.1 0.0 0.0
23:02 11.9 10.6 92 1017.1 24.4 SW 31.1 0.0 0.0
23:03 11.9 10.6 92 1016.9 24.4 SW 31.1 0.0 0.0
23:04 11.9 10.6 92 1016.8 24.4 SW 31.1 0.0 0.0
23:05 11.9 10.6 92 1017.0 24.4 SW 31.1 0.0 0.0
23:06 11.9 10.6 92 1017.2 24.4 SW 31.1 0.0 0.0
23:07 11.9 10.6 92 1017.0 26.6 SW 35.8 0.0 0.0
23:08 11.9 10.6 92 1017.1 29.8 SW 35.8 0.0 0.0
23:10 11.9 10.6 92 1017.0 22.8 W 35.8 0.0 0.0
23:11 11.9 10.6 92 1017.2 25.1 S 35.8 0.0 0.0
23:12 11.9 10.6 92 1016.8 21.3 N 35.8 0.0 0.0
23:13 11.9 10.6 92 1017.0 24.4 SW 35.8 0.0 0.0
23:14 11.9 10.6 92 1016.8 24.4 WSW 35.8 0.0 0.0
23:15 11.9 10.6 92 1017.1 32.0 S 35.8 0.0 0.0
23:16 11.9 10.6 92 1017.1 32.0 S 35.8 0.0 0.0
23:17 11.9 10.6 92 1016.9 26.6 S 32.0 0.0 0.0
23:18 11.9 10.6 92 1017.0 28.2 S 32.0 0.0 0.0
23:19 11.9 10.6 92 1016.9 29.8 SSE 32.0 0.0 0.0
23:20 11.9 10.6 92 1016.9 29.8 SSE 32.0 0.0 0.0
23:21 11.9 10.6 92 1016.9 23.5 S 32.0 0.0 0.0
23:22 11.9 10.6 92 1016.8 23.5 WSW 32.0 0.0 0.0
23:23 11.9 10.6 92 1017.1 24.4 S 32.0 0.0 0.0
23:24 11.9 10.6 92 1017.0 32.7 S 32.7 0.0 0.0
23:25 11.9 10.6 92 1017.1 27.3 S 32.7 0.0 0.0
23:26 11.9 10.6 92 1017.2 28.2 S 32.7 0.0 0.0
23:27 11.9 10.6 92 1016.9 28.2 SW 32.7 0.0 0.0
23:28 11.9 10.6 92 1016.9 27.3 SW 32.7 0.0 0.0
23:29 11.9 10.6 92 1017.0 25.1 WSW 32.7 0.0 0.0
23:31 11.9 10.6 92 1016.9 32.0 S 34.2 0.0 0.0
23:32 11.9 10.6 92 1017.1 34.9 S 34.9 0.0 0.0
23:33 11.9 10.6 92 1017.1 34.9 SW 34.9 0.0 0.0
23:34 11.9 10.6 92 1017.0 31.1 S 34.9 0.0 0.0
23:35 11.9 10.6 92 1017.1 28.9 S 34.9 0.0 0.0
23:36 11.9 10.6 92 1016.9 26.6 S 34.9 0.0 0.0
23:37 11.9 10.6 92 1017.0 29.8 SW 34.9 0.0 0.0
23:38 11.9 10.6 92 1017.3 27.3 SSE 34.9 0.0 0.0
23:39 11.9 10.6 92 1017.2 21.3 S 34.9 0.0 0.0
23:40 11.9 10.6 92 1017.0 24.4 S 34.9 0.0 0.0
23:41 11.9 10.6 92 1017.0 24.4 SE 34.9 0.0 0.0
23:42 11.9 10.6 92 1017.3 22.8 SW 34.9 0.0 0.0
23:43 11.9 10.6 92 1017.1 31.1 SSW 34.9 0.0 0.0
23:44 11.9 10.6 92 1017.1 23.5 S 34.2 0.0 0.0
23:45 11.9 10.6 92 1017.0 25.1 S 34.2 0.0 0.0
23:46 11.9 10.6 92 1016.8 29.8 SW 34.2 0.0 0.0
23:47 11.9 10.6 92 1017.4 29.8 S 31.1 0.0 0.0
23:48 11.9 10.6 92 1017.2 25.9 WSW 31.1 0.0 0.0
23:49 11.9 10.6 92 1017.2 29.8 S 31.1 0.0 0.0
23:50 11.8 10.5 92 1017.3 31.1 S 31.1 0.0 0.0
23:51 11.8 10.5 92 1017.2 27.3 S 31.1 0.0 0.0
23:52 11.8 10.5 92 1017.2 24.4 SW 31.1 0.0 0.0
23:54 11.8 10.5 92 1017.0 32.0 S 32.0 0.0 0.0
23:55 11.8 10.5 92 1017.3 32.0 SW 32.0 0.0 0.0
23:56 11.8 10.5 92 1017.4 32.0 SW 32.0 0.0 0.0
23:57 11.8 10.5 92 1017.1 31.1 SW 32.0 0.0 0.0
23:58 11.8 10.5 92 1017.2 22.1 WSW 32.0 0.0 0.0
23:59 11.8 10.5 92 1017.0 23.5 SW 32.0 0.0 0.0

 

 

UK - WEATHER STATION TOPSITES - UK World Weather Websites

Copyright © Carnkie Weather 2009 - 2021.